Observation data for Sweetwater on 02/14/2020      Previous  Date  Next       Current Mesonet Observations  Soil Data  Daily Summary Page  Observations in Plain Language
KSW1 140600Z 07007KT M03/M04 A3033 RMK A01 T10281036  RH  095%=      5-min Rain = 0
KSW1 140601Z 07007KT M03/M04 A3033 RMK A01 T10281036  RH  095%=      5-min Rain = 0
KSW1 140602Z 08007KT M03/M04 A3033 RMK A01 T10281036  RH  095%=      5-min Rain = 0
KSW1 140603Z 08007KT M03/M04 A3032 RMK A01 T10281036  RH  095%=      5-min Rain = 0
KSW1 140604Z 08007KT M03/M04 A3032 RMK A01 T10281036  RH  095%=      5-min Rain = 0
KSW1 140605Z 08007KT M03/M04 A3032 RMK A01 T10291036  RH  095%=      5-min Rain = 0
KSW1 140606Z 08007KT M03/M04 A3032 RMK A01 T10281036  RH  095%=      5-min Rain = 0
KSW1 140607Z 09006KT M03/M04 A3032 RMK A01 T10291036  RH  095%=      5-min Rain = 0
KSW1 140608Z 08006KT M03/M04 A3032 RMK A01 T10291036  RH  095%=      5-min Rain = 0
KSW1 140609Z 08006KT M03/M04 A3032 RMK A01 T10291036  RH  095%=      5-min Rain = 0
KSW1 140610Z 08006KT M03/M04 A3032 RMK A01 T10291036  RH  095%=      5-min Rain = 0
KSW1 140611Z 08006KT M03/M04 A3032 RMK A01 T10291037  RH  095%=      5-min Rain = 0
KSW1 140612Z 08006KT M03/M04 A3032 RMK A01 T10291036  RH  095%=      5-min Rain = 0
KSW1 140613Z 08006KT M03/M04 A3032 RMK A01 T10281036  RH  095%=      5-min Rain = 0
KSW1 140614Z 09006KT M03/M04 A3032 RMK A01 T10281036  RH  095%=      5-min Rain = 0
KSW1 140615Z 09006KT M03/M04 A3032 RMK A01 T10291036  RH  095%=      5-min Rain = 0
KSW1 140616Z 09006KT M03/M04 A3032 RMK A01 T10281036  RH  095%=      5-min Rain = 0
KSW1 140617Z 09006KT M03/M04 A3032 RMK A01 T10281036  RH  095%=      5-min Rain = 0
KSW1 140618Z 09006KT M03/M04 A3032 RMK A01 T10281035  RH  095%=      5-min Rain = 0
KSW1 140619Z 08006KT M03/M04 A3032 RMK A01 T10281036  RH  095%=      5-min Rain = 0
KSW1 140620Z 08006KT M03/M04 A3032 RMK A01 T10281036  RH  094%=      5-min Rain = 0
KSW1 140621Z 07006KT M03/M04 A3032 RMK A01 T10281036  RH  094%=      5-min Rain = 0
KSW1 140622Z 07007KT M03/M04 A3032 RMK A01 T10281036  RH  094%=      5-min Rain = 0
KSW1 140623Z 07007KT M03/M04 A3032 RMK A01 T10281036  RH  094%=      5-min Rain = 0
KSW1 140624Z 07008KT M03/M04 A3032 RMK A01 T10281036  RH  094%=      5-min Rain = 0
KSW1 140625Z 07008KT M03/M03 A3032 RMK A01 T10271034  RH  095%=      5-min Rain = 0
KSW1 140626Z 08008KT M03/M03 A3032 RMK A01 T10271034  RH  095%=      5-min Rain = 0
KSW1 140627Z 08009KT M03/M03 A3032 RMK A01 T10261034  RH  095%=      5-min Rain = 0
KSW1 140628Z 08008KT M03/M03 A3032 RMK A01 T10261034  RH  094%=      5-min Rain = 0
KSW1 140629Z 08008KT M03/M03 A3032 RMK A01 T10261034  RH  094%=      5-min Rain = 0
KSW1 140630Z 08008KT M03/M03 A3032 RMK A01 T10261034  RH  094%=      5-min Rain = 0
KSW1 140631Z 08008KT M03/M03 A3032 RMK A01 T10261034  RH  094%=      5-min Rain = 0
KSW1 140632Z 08008KT M03/M03 A3032 RMK A01 T10261034  RH  094%=      5-min Rain = 0
KSW1 140633Z 08008KT M03/M03 A3032 RMK A01 T10251033  RH  094%=      5-min Rain = 0
KSW1 140634Z 08007KT M03/M03 A3032 RMK A01 T10251033  RH  094%=      5-min Rain = 0
KSW1 140635Z 08007KT M03/M03 A3032 RMK A01 T10251033  RH  094%=      5-min Rain = 0
KSW1 140636Z 08008KT M03/M03 A3032 RMK A01 T10251033  RH  094%=      5-min Rain = 0
KSW1 140637Z 08007KT M02/M03 A3032 RMK A01 T10241033  RH  094%=      5-min Rain = 0
KSW1 140638Z 09007KT M02/M03 A3032 RMK A01 T10241032  RH  094%=      5-min Rain = 0
KSW1 140639Z 08007KT M02/M03 A3032 RMK A01 T10241032  RH  094%=      5-min Rain = 0
KSW1 140640Z 08007KT M02/M03 A3032 RMK A01 T10231032  RH  094%=      5-min Rain = 0
KSW1 140641Z 08007KT M02/M03 A3032 RMK A01 T10231032  RH  094%=      5-min Rain = 0
KSW1 140642Z 08007KT M02/M03 A3032 RMK A01 T10231032  RH  094%=      5-min Rain = 0
KSW1 140643Z 08007KT M02/M03 A3031 RMK A01 T10231032  RH  094%=      5-min Rain = 0
KSW1 140644Z 08007KT M02/M03 A3031 RMK A01 T10231032  RH  094%=      5-min Rain = 0
KSW1 140645Z 08007KT M02/M03 A3031 RMK A01 T10231032  RH  093%=      5-min Rain = 0
KSW1 140646Z 08007KT M02/M03 A3031 RMK A01 T10231033  RH  093%=      5-min Rain = 0
KSW1 140647Z 09007KT M02/M03 A3031 RMK A01 T10241033  RH  093%=      5-min Rain = 0
KSW1 140648Z 09007KT M02/M03 A3031 RMK A01 T10241033  RH  093%=      5-min Rain = 0
KSW1 140649Z 08007KT M02/M03 A3031 RMK A01 T10241033  RH  093%=      5-min Rain = 0
KSW1 140650Z 09007KT M02/M03 A3031 RMK A01 T10241033  RH  093%=      5-min Rain = 0
KSW1 140651Z 08007KT M02/M03 A3032 RMK A01 T10241033  RH  093%=      5-min Rain = 0
KSW1 140652Z 08007KT M02/M03 A3032 RMK A01 T10241033  RH  093%=      5-min Rain = 0
KSW1 140653Z 08008KT M02/M03 A3032 RMK A01 T10241033  RH  093%=      5-min Rain = 0
KSW1 140654Z 08007KT M02/M03 A3032 RMK A01 T10241034  RH  093%=      5-min Rain = 0
KSW1 140655Z 08007KT M02/M03 A3032 RMK A01 T10241033  RH  093%=      5-min Rain = 0
KSW1 140656Z 09007KT M02/M03 A3032 RMK A01 T10241033  RH  093%=      5-min Rain = 0
KSW1 140657Z 09007KT M02/M03 A3032 RMK A01 T10241034  RH  093%=      5-min Rain = 0
KSW1 140658Z 09007KT M02/M03 A3032 RMK A01 T10241034  RH  093%=      5-min Rain = 0
KSW1 140659Z 09006KT M02/M03 A3032 RMK A01 T10241034  RH  093%=      5-min Rain = 0
KSW1 140700Z 10006KT M02/M03 A3032 RMK A01 T10241034  RH  093%=      5-min Rain = 0
KSW1 140701Z 09007KT M02/M03 A3032 RMK A01 T10241034  RH  093%=      5-min Rain = 0
KSW1 140702Z 09006KT M02/M03 A3032 RMK A01 T10241034  RH  093%=      5-min Rain = 0
KSW1 140703Z 09006KT M02/M03 A3032 RMK A01 T10241034  RH  093%=      5-min Rain = 0
KSW1 140704Z 09006KT M02/M03 A3032 RMK A01 T10241034  RH  093%=      5-min Rain = 0
KSW1 140705Z 08006KT M02/M03 A3032 RMK A01 T10241034  RH  093%=      5-min Rain = 0
KSW1 140706Z 08006KT M02/M03 A3032 RMK A01 T10241034  RH  093%=      5-min Rain = 0
KSW1 140707Z 08006KT M02/M03 A3032 RMK A01 T10241034  RH  093%=      5-min Rain = 0
KSW1 140708Z 08007KT M02/M03 A3032 RMK A01 T10241034  RH  093%=      5-min Rain = 0
KSW1 140709Z 08006KT M02/M03 A3032 RMK A01 T10241034  RH  093%=      5-min Rain = 0
KSW1 140710Z 08007KT M02/M04 A3032 RMK A01 T10241035  RH  093%=      5-min Rain = 0
KSW1 140711Z 09008KT M02/M03 A3032 RMK A01 T10241034  RH  093%=      5-min Rain = 0
KSW1 140712Z 09007KT M02/M03 A3032 RMK A01 T10241034  RH  093%=      5-min Rain = 0
KSW1 140713Z 09008KT M02/M03 A3032 RMK A01 T10231033  RH  093%=      5-min Rain = 0
KSW1 140714Z 09007KT M02/M03 A3032 RMK A01 T10231033  RH  093%=      5-min Rain = 0
KSW1 140715Z 09007KT M02/M03 A3032 RMK A01 T10231033  RH  093%=      5-min Rain = 0
KSW1 140716Z 09007KT M02/M03 A3032 RMK A01 T10231034  RH  092%=      5-min Rain = 0
KSW1 140717Z 09006KT M02/M03 A3033 RMK A01 T10231033  RH  092%=      5-min Rain = 0
KSW1 140718Z 09006KT M02/M03 A3033 RMK A01 T10231034  RH  092%=      5-min Rain = 0
KSW1 140719Z 09006KT M02/M03 A3033 RMK A01 T10231034  RH  092%=      5-min Rain = 0
KSW1 140720Z 08007KT M02/M03 A3033 RMK A01 T10231034  RH  092%=      5-min Rain = 0
KSW1 140721Z 09007KT M02/M03 A3033 RMK A01 T10231034  RH  092%=      5-min Rain = 0
KSW1 140722Z 08007KT M02/M03 A3033 RMK A01 T10231034  RH  092%=      5-min Rain = 0
KSW1 140723Z 09006KT M02/M03 A3033 RMK A01 T10231034  RH  092%=      5-min Rain = 0
KSW1 140724Z 09007KT M02/M03 A3033 RMK A01 T10231034  RH  092%=      5-min Rain = 0
KSW1 140725Z 09007KT M02/M03 A3033 RMK A01 T10241034  RH  092%=      5-min Rain = 0
KSW1 140726Z 09008KT M02/M04 A3033 RMK A01 T10241035  RH  092%=      5-min Rain = 0
KSW1 140727Z 09008KT M02/M03 A3033 RMK A01 T10231034  RH  093%=      5-min Rain = 0
KSW1 140728Z 09008KT M02/M03 A3033 RMK A01 T10231034  RH  093%=      5-min Rain = 0
KSW1 140729Z 09008KT M02/M03 A3033 RMK A01 T10231034  RH  093%=      5-min Rain = 0
KSW1 140730Z 09008KT M02/M03 A3033 RMK A01 T10231034  RH  092%=      5-min Rain = 0
KSW1 140731Z 09008KT M02/M03 A3033 RMK A01 T10231034  RH  092%=      5-min Rain = 0
KSW1 140732Z 09008KT M02/M03 A3033 RMK A01 T10231034  RH  092%=      5-min Rain = 0
KSW1 140733Z 09008KT M02/M03 A3033 RMK A01 T10231034  RH  092%=      5-min Rain = 0
KSW1 140734Z 09008KT M02/M03 A3033 RMK A01 T10231034  RH  092%=      5-min Rain = 0
KSW1 140735Z 09007KT M02/M04 A3033 RMK A01 T10231035  RH  092%=      5-min Rain = 0
KSW1 140736Z 09008KT M02/M04 A3033 RMK A01 T10241035  RH  092%=      5-min Rain = 0
KSW1 140737Z 09007KT M02/M04 A3033 RMK A01 T10231035  RH  092%=      5-min Rain = 0
KSW1 140738Z 09008KT M02/M04 A3033 RMK A01 T10231035  RH  092%=      5-min Rain = 0
KSW1 140739Z 09008KT M02/M04 A3033 RMK A01 T10231035  RH  092%=      5-min Rain = 0
KSW1 140740Z 09008KT M02/M04 A3033 RMK A01 T10231035  RH  092%=      5-min Rain = 0
KSW1 140741Z 09008KT M02/M03 A3033 RMK A01 T10231034  RH  092%=      5-min Rain = 0
KSW1 140742Z 09007KT M02/M04 A3033 RMK A01 T10231035  RH  092%=      5-min Rain = 0
KSW1 140743Z 09008KT M02/M03 A3033 RMK A01 T10221034  RH  091%=      5-min Rain = 0
KSW1 140744Z 08007KT M02/M04 A3033 RMK A01 T10231035  RH  091%=      5-min Rain = 0
KSW1 140745Z 09007KT M02/M04 A3033 RMK A01 T10221035  RH  091%=      5-min Rain = 0
KSW1 140746Z 09007KT M02/M04 A3033 RMK A01 T10221035  RH  091%=      5-min Rain = 0
KSW1 140747Z 10007KT M02/M04 A3033 RMK A01 T10231035  RH  091%=      5-min Rain = 0
KSW1 140748Z 10006KT M02/M04 A3033 RMK A01 T10231035  RH  091%=      5-min Rain = 0
KSW1 140749Z 10007KT M02/M04 A3033 RMK A01 T10231036  RH  091%=      5-min Rain = 0
KSW1 140750Z 10007KT M02/M04 A3033 RMK A01 T10231036  RH  091%=      5-min Rain = 0
KSW1 140751Z 10006KT M02/M04 A3033 RMK A01 T10241036  RH  091%=      5-min Rain = 0
KSW1 140752Z 10007KT M02/M04 A3033 RMK A01 T10241037  RH  091%=      5-min Rain = 0
KSW1 140753Z 09007KT M02/M04 A3033 RMK A01 T10241037  RH  091%=      5-min Rain = 0
KSW1 140754Z 09006KT M02/M04 A3033 RMK A01 T10241036  RH  092%=      5-min Rain = 0
KSW1 140755Z 09006KT M03/M04 A3033 RMK A01 T10251037  RH  091%=      5-min Rain = 0
KSW1 140756Z 08006KT M03/M04 A3033 RMK A01 T10251037  RH  091%=      5-min Rain = 0
KSW1 140757Z 08007KT M03/M04 A3033 RMK A01 T10261038  RH  092%=      5-min Rain = 0
KSW1 140758Z 08007KT M03/M04 A3033 RMK A01 T10261037  RH  092%=      5-min Rain = 0
KSW1 140759Z 08007KT M03/M04 A3033 RMK A01 T10251037  RH  092%=      5-min Rain = 0
KSW1 140800Z 08007KT M03/M04 A3033 RMK A01 T10261037  RH  092%=      5-min Rain = 0
KSW1 140801Z 08007KT M03/M04 A3033 RMK A01 T10261037  RH  092%=      5-min Rain = 0
KSW1 140802Z 09007KT M03/M04 A3033 RMK A01 T10261037  RH  092%=      5-min Rain = 0
KSW1 140803Z 09007KT M03/M04 A3033 RMK A01 T10261037  RH  092%=      5-min Rain = 0
KSW1 140804Z 09007KT M03/M04 A3033 RMK A01 T10251037  RH  092%=      5-min Rain = 0
KSW1 140805Z 09006KT M03/M04 A3033 RMK A01 T10251036  RH  092%=      5-min Rain = 0
KSW1 140806Z 09006KT M03/M04 A3033 RMK A01 T10251037  RH  092%=      5-min Rain = 0
KSW1 140807Z 09006KT M03/M04 A3033 RMK A01 T10251037  RH  092%=      5-min Rain = 0
KSW1 140808Z 08006KT M03/M04 A3033 RMK A01 T10251037  RH  092%=      5-min Rain = 0
KSW1 140809Z 08006KT M03/M04 A3033 RMK A01 T10251037  RH  092%=      5-min Rain = 0
KSW1 140810Z 08006KT M03/M04 A3033 RMK A01 T10251037  RH  092%=      5-min Rain = 0
KSW1 140811Z 08006KT M03/M04 A3033 RMK A01 T10251037  RH  092%=      5-min Rain = 0
KSW1 140812Z 08006KT M03/M04 A3033 RMK A01 T10251037  RH  091%=      5-min Rain = 0
KSW1 140813Z 08007KT M03/M04 A3033 RMK A01 T10251038  RH  091%=      5-min Rain = 0
KSW1 140814Z 08007KT M03/M04 A3033 RMK A01 T10261038  RH  091%=      5-min Rain = 0
KSW1 140815Z 09007KT M03/M04 A3033 RMK A01 T10261038  RH  091%=      5-min Rain = 0
KSW1 140816Z 09007KT M03/M04 A3033 RMK A01 T10251038  RH  091%=      5-min Rain = 0
KSW1 140817Z 09006KT M03/M04 A3033 RMK A01 T10261038  RH  091%=      5-min Rain = 0
KSW1 140818Z 09007KT M03/M04 A3033 RMK A01 T10261038  RH  091%=      5-min Rain = 0
KSW1 140819Z 09006KT M03/M04 A3033 RMK A01 T10261038  RH  091%=      5-min Rain = 0
KSW1 140820Z 09006KT M03/M04 A3033 RMK A01 T10261038  RH  091%=      5-min Rain = 0
KSW1 140821Z 09006KT M03/M04 A3033 RMK A01 T10261039  RH  091%=      5-min Rain = 0
KSW1 140822Z 08006KT M03/M04 A3033 RMK A01 T10261039  RH  091%=      5-min Rain = 0
KSW1 140823Z 08006KT M03/M04 A3033 RMK A01 T10271039  RH  091%=      5-min Rain = 0
KSW1 140824Z 08006KT M03/M04 A3033 RMK A01 T10271040  RH  091%=      5-min Rain = 0
KSW1 140825Z 08006KT M03/M04 A3033 RMK A01 T10271040  RH  091%=      5-min Rain = 0
KSW1 140826Z 08006KT M03/M04 A3033 RMK A01 T10271040  RH  091%=      5-min Rain = 0
KSW1 140827Z 08006KT M03/M04 A3033 RMK A01 T10281040  RH  091%=      5-min Rain = 0
KSW1 140828Z 09006KT M03/M04 A3033 RMK A01 T10281040  RH  091%=      5-min Rain = 0
KSW1 140829Z 09006KT M03/M04 A3033 RMK A01 T10281040  RH  091%=      5-min Rain = 0
KSW1 140830Z 10005KT M03/M04 A3032 RMK A01 T10281040  RH  091%=      5-min Rain = 0
KSW1 140831Z 10005KT M03/M04 A3032 RMK A01 T10281041  RH  091%=      5-min Rain = 0
KSW1 140832Z 10005KT M03/M04 A3032 RMK A01 T10291041  RH  091%=      5-min Rain = 0
KSW1 140833Z 10005KT M03/M04 A3032 RMK A01 T10291042  RH  091%=      5-min Rain = 0
KSW1 140834Z 10004KT M03/M04 A3032 RMK A01 T10291042  RH  091%=      5-min Rain = 0
KSW1 140835Z 09004KT M03/M04 A3032 RMK A01 T10291041  RH  091%=      5-min Rain = 0
KSW1 140836Z 09005KT M03/M04 A3032 RMK A01 T10301042  RH  091%=      5-min Rain = 0
KSW1 140837Z 08004KT M03/M04 A3033 RMK A01 T10301042  RH  091%=      5-min Rain = 0
KSW1 140838Z 08004KT M03/M04 A3033 RMK A01 T10311043  RH  091%=      5-min Rain = 0
KSW1 140839Z 09004KT M03/M04 A3033 RMK A01 T10311043  RH  091%=      5-min Rain = 0
KSW1 140840Z 09004KT M03/M04 A3033 RMK A01 T10311043  RH  091%=      5-min Rain = 0
KSW1 140841Z 09005KT M03/M04 A3033 RMK A01 T10311043  RH  091%=      5-min Rain = 0
KSW1 140842Z 09004KT M03/M04 A3033 RMK A01 T10311043  RH  092%=      5-min Rain = 0
KSW1 140843Z 09004KT M03/M04 A3032 RMK A01 T10311043  RH  092%=      5-min Rain = 0
KSW1 140844Z 09005KT M03/M04 A3032 RMK A01 T10321044  RH  092%=      5-min Rain = 0
KSW1 140845Z 10005KT M03/M04 A3033 RMK A01 T10321044  RH  091%=      5-min Rain = 0
KSW1 140846Z 09005KT M03/M05 A3033 RMK A01 T10331045  RH  091%=      5-min Rain = 0
KSW1 140847Z 09004KT M03/M05 A3033 RMK A01 T10331045  RH  092%=      5-min Rain = 0
KSW1 140848Z 08005KT M03/M05 A3033 RMK A01 T10331045  RH  091%=      5-min Rain = 0
KSW1 140849Z 08005KT M03/M05 A3033 RMK A01 T10341046  RH  091%=      5-min Rain = 0
KSW1 140850Z 08005KT M03/M05 A3033 RMK A01 T10341046  RH  092%=      5-min Rain = 0
KSW1 140851Z 08005KT M03/M05 A3033 RMK A01 T10341046  RH  092%=      5-min Rain = 0
KSW1 140852Z 07006KT M03/M05 A3033 RMK A01 T10341045  RH  092%=      5-min Rain = 0
KSW1 140853Z 07006KT M03/M05 A3033 RMK A01 T10341045  RH  092%=      5-min Rain = 0
KSW1 140854Z 08006KT M03/M05 A3033 RMK A01 T10341045  RH  092%=      5-min Rain = 0
KSW1 140855Z 08007KT M03/M05 A3033 RMK A01 T10341045  RH  092%=      5-min Rain = 0
KSW1 140856Z 08007KT M03/M04 A3033 RMK A01 T10331044  RH  093%=      5-min Rain = 0
KSW1 140857Z 09007KT M03/M04 A3033 RMK A01 T10331043  RH  093%=      5-min Rain = 0
KSW1 140858Z 09006KT M03/M04 A3033 RMK A01 T10331043  RH  092%=      5-min Rain = 0
KSW1 140859Z 09006KT M03/M04 A3033 RMK A01 T10321043  RH  092%=      5-min Rain = 0
KSW1 140900Z 09007KT M03/M04 A3033 RMK A01 T10321043  RH  092%=      5-min Rain = 0
KSW1 140901Z 09007KT M03/M04 A3033 RMK A01 T10311042  RH  092%=      5-min Rain = 0
KSW1 140902Z 09006KT M03/M04 A3033 RMK A01 T10311042  RH  092%=      5-min Rain = 0
KSW1 140903Z 08007KT M03/M04 A3033 RMK A01 T10311042  RH  092%=      5-min Rain = 0
KSW1 140904Z 08007KT M03/M04 A3033 RMK A01 T10311042  RH  092%=      5-min Rain = 0
KSW1 140905Z 08007KT M03/M04 A3033 RMK A01 T10301042  RH  091%=      5-min Rain = 0
KSW1 140906Z 08006KT M03/M04 A3033 RMK A01 T10301042  RH  091%=      5-min Rain = 0
KSW1 140907Z 08007KT M03/M04 A3033 RMK A01 T10301043  RH  091%=      5-min Rain = 0
KSW1 140908Z 08007KT M03/M04 A3033 RMK A01 T10301043  RH  091%=      5-min Rain = 0
KSW1 140909Z 08006KT M03/M04 A3033 RMK A01 T10311043  RH  091%=      5-min Rain = 0
KSW1 140910Z 08006KT M03/M04 A3033 RMK A01 T10311043  RH  091%=      5-min Rain = 0
KSW1 140911Z 08006KT M03/M04 A3033 RMK A01 T10301043  RH  091%=      5-min Rain = 0
KSW1 140912Z 08006KT M03/M04 A3033 RMK A01 T10311043  RH  091%=      5-min Rain = 0
KSW1 140913Z 09006KT M03/M04 A3033 RMK A01 T10311043  RH  091%=      5-min Rain = 0
KSW1 140914Z 08006KT M03/M04 A3033 RMK A01 T10311043  RH  091%=      5-min Rain = 0
KSW1 140915Z 08006KT M03/M04 A3032 RMK A01 T10311043  RH  091%=      5-min Rain = 0
KSW1 140916Z 08006KT M03/M04 A3032 RMK A01 T10311043  RH  091%=      5-min Rain = 0
KSW1 140917Z 08006KT M03/M04 A3032 RMK A01 T10311043  RH  091%=      5-min Rain = 0
KSW1 140918Z 08006KT M03/M04 A3032 RMK A01 T10311043  RH  091%=      5-min Rain = 0
KSW1 140919Z 08006KT M03/M04 A3032 RMK A01 T10311043  RH  091%=      5-min Rain = 0
KSW1 140920Z 08006KT M03/M04 A3032 RMK A01 T10311043  RH  091%=      5-min Rain = 0
KSW1 140921Z 08006KT M03/M04 A3032 RMK A01 T10311044  RH  091%=      5-min Rain = 0
KSW1 140922Z 08006KT M03/M04 A3032 RMK A01 T10311044  RH  091%=      5-min Rain = 0
KSW1 140923Z 07006KT M03/M04 A3032 RMK A01 T10321044  RH  091%=      5-min Rain = 0
KSW1 140924Z 08006KT M03/M04 A3032 RMK A01 T10321044  RH  091%=      5-min Rain = 0
KSW1 140925Z 07006KT M03/M05 A3032 RMK A01 T10331045  RH  091%=      5-min Rain = 0
KSW1 140926Z 07007KT M03/M05 A3032 RMK A01 T10331045  RH  091%=      5-min Rain = 0
KSW1 140927Z 08007KT M03/M05 A3032 RMK A01 T10331045  RH  091%=      5-min Rain = 0
KSW1 140928Z 08007KT M03/M05 A3032 RMK A01 T10331045  RH  092%=      5-min Rain = 0
KSW1 140929Z 08006KT M03/M04 A3032 RMK A01 T10331044  RH  092%=      5-min Rain = 0
KSW1 140930Z 08006KT M03/M04 A3032 RMK A01 T10331044  RH  092%=      5-min Rain = 0
KSW1 140931Z 08006KT M03/M04 A3032 RMK A01 T10321044  RH  092%=      5-min Rain = 0
KSW1 140932Z 08006KT M03/M04 A3032 RMK A01 T10321044  RH  092%=      5-min Rain = 0
KSW1 140933Z 08006KT M03/M04 A3032 RMK A01 T10321044  RH  092%=      5-min Rain = 0
KSW1 140934Z 08006KT M03/M04 A3032 RMK A01 T10331044  RH  092%=      5-min Rain = 0
KSW1 140935Z 08006KT M03/M04 A3032 RMK A01 T10331044  RH  092%=      5-min Rain = 0
KSW1 140936Z 08006KT M03/M04 A3032 RMK A01 T10321044  RH  092%=      5-min Rain = 0
KSW1 140937Z 08006KT M03/M04 A3032 RMK A01 T10321044  RH  092%=      5-min Rain = 0
KSW1 140938Z 07006KT M03/M04 A3032 RMK A01 T10331044  RH  092%=      5-min Rain = 0
KSW1 140939Z 07006KT M03/M04 A3032 RMK A01 T10321043  RH  092%=      5-min Rain = 0
KSW1 140940Z 07007KT M03/M04 A3032 RMK A01 T10321043  RH  092%=      5-min Rain = 0
KSW1 140941Z 07007KT M03/M04 A3032 RMK A01 T10321044  RH  092%=      5-min Rain = 0
KSW1 140942Z 07007KT M03/M04 A3032 RMK A01 T10321044  RH  092%=      5-min Rain = 0
KSW1 140943Z 07007KT M03/M04 A3032 RMK A01 T10321043  RH  092%=      5-min Rain = 0
KSW1 140944Z 07006KT M03/M04 A3032 RMK A01 T10321043  RH  092%=      5-min Rain = 0
KSW1 140945Z 08006KT M03/M04 A3032 RMK A01 T10311042  RH  092%=      5-min Rain = 0
KSW1 140946Z 08006KT M03/M04 A3032 RMK A01 T10311042  RH  092%=      5-min Rain = 0
KSW1 140947Z 08006KT M03/M04 A3032 RMK A01 T10311042  RH  092%=      5-min Rain = 0
KSW1 140948Z 08006KT M03/M04 A3032 RMK A01 T10311042  RH  092%=      5-min Rain = 0
KSW1 140949Z 08006KT M03/M04 A3032 RMK A01 T10311042  RH  092%=      5-min Rain = 0
KSW1 140950Z 08006KT M03/M04 A3032 RMK A01 T10311042  RH  092%=      5-min Rain = 0
KSW1 140951Z 08007KT M03/M04 A3032 RMK A01 T10311042  RH  092%=      5-min Rain = 0
KSW1 140952Z 08006KT M03/M04 A3032 RMK A01 T10311042  RH  092%=      5-min Rain = 0
KSW1 140953Z 09006KT M03/M04 A3032 RMK A01 T10311042  RH  092%=      5-min Rain = 0
KSW1 140954Z 09006KT M03/M04 A3032 RMK A01 T10311042  RH  092%=      5-min Rain = 0
KSW1 140955Z 09006KT M03/M04 A3032 RMK A01 T10311043  RH  092%=      5-min Rain = 0
KSW1 140956Z 09006KT M03/M04 A3032 RMK A01 T10311043  RH  092%=      5-min Rain = 0
KSW1 140957Z 09006KT M03/M04 A3032 RMK A01 T10311043  RH  092%=      5-min Rain = 0
KSW1 140958Z 09006KT M03/M04 A3032 RMK A01 T10311043  RH  092%=      5-min Rain = 0
KSW1 140959Z 08005KT M03/M04 A3032 RMK A01 T10311043  RH  092%=      5-min Rain = 0
KSW1 141000Z 09005KT M03/M04 A3032 RMK A01 T10321044  RH  092%=      5-min Rain = 0
KSW1 141001Z 09005KT M03/M04 A3032 RMK A01 T10321044  RH  092%=      5-min Rain = 0
KSW1 141002Z 09005KT M03/M04 A3032 RMK A01 T10321044  RH  092%=      5-min Rain = 0
KSW1 141003Z 09005KT M03/M05 A3032 RMK A01 T10331045  RH  092%=      5-min Rain = 0
KSW1 141004Z 09005KT M03/M05 A3032 RMK A01 T10331045  RH  092%=      5-min Rain = 0
KSW1 141005Z 09005KT M03/M05 A3032 RMK A01 T10331045  RH  092%=      5-min Rain = 0
KSW1 141006Z 09005KT M03/M05 A3032 RMK A01 T10341045  RH  092%=      5-min Rain = 0
KSW1 141007Z 10005KT M03/M05 A3032 RMK A01 T10341045  RH  092%=      5-min Rain = 0
KSW1 141008Z 10005KT M03/M04 A3032 RMK A01 T10341044  RH  092%=      5-min Rain = 0
KSW1 141009Z 10005KT M03/M04 A3032 RMK A01 T10331044  RH  093%=      5-min Rain = 0
KSW1 141010Z 10006KT M03/M04 A3032 RMK A01 T10331043  RH  093%=      5-min Rain = 0
KSW1 141011Z 10005KT M03/M04 A3032 RMK A01 T10331043  RH  092%=      5-min Rain = 0
KSW1 141012Z 10006KT M03/M04 A3032 RMK A01 T10331044  RH  092%=      5-min Rain = 0
KSW1 141013Z 09006KT M03/M04 A3032 RMK A01 T10331043  RH  093%=      5-min Rain = 0
KSW1 141014Z 09006KT M03/M04 A3032 RMK A01 T10321042  RH  093%=      5-min Rain = 0
KSW1 141015Z 09007KT M03/M04 A3032 RMK A01 T10321042  RH  093%=      5-min Rain = 0
KSW1 141016Z 09006KT M03/M04 A3032 RMK A01 T10311041  RH  093%=      5-min Rain = 0
KSW1 141017Z 09006KT M03/M04 A3032 RMK A01 T10311041  RH  093%=      5-min Rain = 0
KSW1 141018Z 09007KT M03/M04 A3032 RMK A01 T10311041  RH  093%=      5-min Rain = 0
KSW1 141019Z 09006KT M03/M04 A3032 RMK A01 T10301041  RH  093%=      5-min Rain = 0
KSW1 141020Z 09007KT M03/M04 A3032 RMK A01 T10311041  RH  092%=      5-min Rain = 0
KSW1 141021Z 09006KT M03/M04 A3032 RMK A01 T10301041  RH  093%=      5-min Rain = 0
KSW1 141022Z 08005KT M03/M04 A3032 RMK A01 T10301041  RH  092%=      5-min Rain = 0
KSW1 141023Z 08005KT M03/M04 A3032 RMK A01 T10311043  RH  092%=      5-min Rain = 0
KSW1 141024Z 08006KT M03/M04 A3032 RMK A01 T10321043  RH  092%=      5-min Rain = 0
KSW1 141025Z 09006KT M03/M04 A3032 RMK A01 T10321043  RH  092%=      5-min Rain = 0
KSW1 141026Z 09006KT M03/M04 A3032 RMK A01 T10321042  RH  093%=      5-min Rain = 0
KSW1 141027Z 09005KT M03/M04 A3032 RMK A01 T10311042  RH  093%=      5-min Rain = 0
KSW1 141028Z 09005KT M03/M04 A3032 RMK A01 T10311041  RH  093%=      5-min Rain = 0
KSW1 141029Z 08005KT M03/M04 A3032 RMK A01 T10311042  RH  093%=      5-min Rain = 0
KSW1 141030Z 08005KT M03/M04 A3032 RMK A01 T10311042  RH  092%=      5-min Rain = 0
KSW1 141031Z 08005KT M03/M04 A3032 RMK A01 T10321042  RH  092%=      5-min Rain = 0
KSW1 141032Z 08005KT M03/M04 A3032 RMK A01 T10321043  RH  092%=      5-min Rain = 0
KSW1 141033Z 08005KT M03/M04 A3032 RMK A01 T10331043  RH  092%=      5-min Rain = 0
KSW1 141034Z 08005KT M03/M04 A3032 RMK A01 T10321043  RH  092%=      5-min Rain = 0
KSW1 141035Z 08005KT M03/M04 A3032 RMK A01 T10321043  RH  093%=      5-min Rain = 0
KSW1 141036Z 08005KT M03/M04 A3032 RMK A01 T10331044  RH  092%=      5-min Rain = 0
KSW1 141037Z 08004KT M03/M04 A3032 RMK A01 T10331044  RH  092%=      5-min Rain = 0
KSW1 141038Z 08005KT M03/M04 A3032 RMK A01 T10331044  RH  092%=      5-min Rain = 0
KSW1 141039Z 09005KT M03/M04 A3032 RMK A01 T10341044  RH  092%=      5-min Rain = 0
KSW1 141040Z 09005KT M03/M04 A3032 RMK A01 T10341044  RH  093%=      5-min Rain = 0
KSW1 141041Z 10005KT M03/M04 A3032 RMK A01 T10341044  RH  093%=      5-min Rain = 0
KSW1 141042Z 09004KT M03/M04 A3032 RMK A01 T10331043  RH  093%=      5-min Rain = 0
KSW1 141043Z 09005KT M03/M04 A3032 RMK A01 T10331044  RH  093%=      5-min Rain = 0
KSW1 141044Z 09005KT M03/M04 A3032 RMK A01 T10341044  RH  093%=      5-min Rain = 0
KSW1 141045Z 09005KT M03/M05 A3032 RMK A01 T10341045  RH  093%=      5-min Rain = 0
KSW1 141046Z 09005KT M04/M05 A3032 RMK A01 T10351045  RH  092%=      5-min Rain = 0
KSW1 141047Z 10005KT M04/M05 A3032 RMK A01 T10351045  RH  093%=      5-min Rain = 0
KSW1 141048Z 09005KT M04/M04 A3032 RMK A01 T10351044  RH  093%=      5-min Rain = 0
KSW1 141049Z 10005KT M03/M04 A3032 RMK A01 T10341044  RH  093%=      5-min Rain = 0
KSW1 141050Z 09005KT M03/M04 A3032 RMK A01 T10341044  RH  093%=      5-min Rain = 0
KSW1 141051Z 09005KT M04/M05 A3032 RMK A01 T10351045  RH  093%=      5-min Rain = 0
KSW1 141052Z 09004KT M04/M05 A3032 RMK A01 T10351045  RH  093%=      5-min Rain = 0
KSW1 141053Z 09004KT M04/M05 A3032 RMK A01 T10351045  RH  093%=      5-min Rain = 0
KSW1 141054Z 09005KT M04/M05 A3033 RMK A01 T10351045  RH  093%=      5-min Rain = 0
KSW1 141055Z 09004KT M04/M04 A3033 RMK A01 T10351044  RH  093%=      5-min Rain = 0
KSW1 141056Z 09004KT M03/M04 A3033 RMK A01 T10341043  RH  093%=      5-min Rain = 0
KSW1 141057Z 09004KT M03/M04 A3033 RMK A01 T10341044  RH  093%=      5-min Rain = 0
KSW1 141058Z 10004KT M03/M04 A3033 RMK A01 T10341044  RH  093%=      5-min Rain = 0
KSW1 141059Z 10004KT M03/M04 A3033 RMK A01 T10341044  RH  093%=      5-min Rain = 0
KSW1 141100Z 10004KT M04/M05 A3033 RMK A01 T10351045  RH  093%=      5-min Rain = 0
KSW1 141101Z 10004KT M04/M05 A3033 RMK A01 T10351045  RH  093%=      5-min Rain = 0
KSW1 141102Z 09004KT M04/M04 A3033 RMK A01 T10351044  RH  093%=      5-min Rain = 0
KSW1 141103Z 09004KT M04/M05 A3033 RMK A01 T10351045  RH  093%=      5-min Rain = 0
KSW1 141104Z 09004KT M04/M05 A3033 RMK A01 T10351045  RH  093%=      5-min Rain = 0
KSW1 141105Z 08004KT M04/M05 A3033 RMK A01 T10351045  RH  093%=      5-min Rain = 0
KSW1 141106Z 08004KT M04/M05 A3033 RMK A01 T10351045  RH  093%=      5-min Rain = 0
KSW1 141107Z 08004KT M04/M05 A3033 RMK A01 T10351045  RH  093%=      5-min Rain = 0
KSW1 141108Z 08004KT M04/M05 A3033 RMK A01 T10351045  RH  093%=      5-min Rain = 0
KSW1 141109Z 08004KT M04/M05 A3033 RMK A01 T10361045  RH  093%=      5-min Rain = 0
KSW1 141110Z 09004KT M04/M05 A3033 RMK A01 T10361046  RH  093%=      5-min Rain = 0
KSW1 141111Z 08004KT M04/M05 A3033 RMK A01 T10361046  RH  093%=      5-min Rain = 0
KSW1 141112Z 09004KT M04/M05 A3033 RMK A01 T10361046  RH  093%=      5-min Rain = 0
KSW1 141113Z 09005KT M04/M05 A3033 RMK A01 T10361046  RH  093%=      5-min Rain = 0
KSW1 141114Z 09005KT M04/M05 A3033 RMK A01 T10361045  RH  093%=      5-min Rain = 0
KSW1 141115Z 09005KT M04/M05 A3033 RMK A01 T10361045  RH  093%=      5-min Rain = 0
KSW1 141116Z 09005KT M04/M05 A3033 RMK A01 T10361045  RH  093%=      5-min Rain = 0
KSW1 141117Z 09004KT M04/M05 A3033 RMK A01 T10361045  RH  093%=      5-min Rain = 0
KSW1 141118Z 09005KT M04/M05 A3033 RMK A01 T10361045  RH  093%=      5-min Rain = 0
KSW1 141119Z 09005KT M04/M05 A3033 RMK A01 T10361045  RH  093%=      5-min Rain = 0
KSW1 141120Z 08005KT M04/M05 A3033 RMK A01 T10361045  RH  093%=      5-min Rain = 0
KSW1 141121Z 08005KT M04/M05 A3033 RMK A01 T10361045  RH  093%=      5-min Rain = 0
KSW1 141122Z 08005KT M04/M05 A3033 RMK A01 T10371046  RH  093%=      5-min Rain = 0
KSW1 141123Z 08004KT M04/M05 A3034 RMK A01 T10371046  RH  093%=      5-min Rain = 0
KSW1 141124Z 08004KT M04/M05 A3034 RMK A01 T10371047  RH  093%=      5-min Rain = 0
KSW1 141125Z 08004KT M04/M05 A3034 RMK A01 T10381048  RH  093%=      5-min Rain = 0
KSW1 141126Z 09005KT M04/M05 A3034 RMK A01 T10381048  RH  093%=      5-min Rain = 0
KSW1 141127Z 09004KT M04/M05 A3034 RMK A01 T10381048  RH  093%=      5-min Rain = 0
KSW1 141128Z 09004KT M04/M05 A3034 RMK A01 T10391048  RH  093%=      5-min Rain = 0
KSW1 141129Z 10005KT M04/M05 A3034 RMK A01 T10381047  RH  093%=      5-min Rain = 0
KSW1 141130Z 10005KT M04/M05 A3034 RMK A01 T10381047  RH  094%=      5-min Rain = 0
KSW1 141131Z 10005KT M04/M05 A3034 RMK A01 T10381046  RH  094%=      5-min Rain = 0
KSW1 141132Z 10005KT M04/M05 A3034 RMK A01 T10381046  RH  094%=      5-min Rain = 0
KSW1 141133Z 09005KT M04/M05 A3034 RMK A01 T10371046  RH  094%=      5-min Rain = 0
KSW1 141134Z 09004KT M04/M05 A3034 RMK A01 T10371046  RH  094%=      5-min Rain = 0
KSW1 141135Z 09005KT M04/M05 A3034 RMK A01 T10371047  RH  093%=      5-min Rain = 0
KSW1 141136Z 08004KT M04/M05 A3034 RMK A01 T10381047  RH  093%=      5-min Rain = 0
KSW1 141137Z 07005KT M04/M05 A3034 RMK A01 T10381047  RH  093%=      5-min Rain = 0
KSW1 141138Z 07004KT M04/M05 A3034 RMK A01 T10381047  RH  093%=      5-min Rain = 0
KSW1 141139Z 07005KT M04/M05 A3034 RMK A01 T10391048  RH  093%=      5-min Rain = 0
KSW1 141140Z 07005KT M04/M05 A3034 RMK A01 T10391049  RH  093%=      5-min Rain = 0
KSW1 141141Z 07005KT M04/M05 A3034 RMK A01 T10391048  RH  093%=      5-min Rain = 0
KSW1 141142Z 07005KT M04/M05 A3034 RMK A01 T10391048  RH  094%=      5-min Rain = 0
KSW1 141143Z 07005KT M04/M05 A3034 RMK A01 T10391048  RH  094%=      5-min Rain = 0
KSW1 141144Z 07005KT M04/M05 A3034 RMK A01 T10391048  RH  094%=      5-min Rain = 0
KSW1 141145Z 08005KT M04/M05 A3034 RMK A01 T10391048  RH  094%=      5-min Rain = 0
KSW1 141146Z 08005KT M04/M05 A3034 RMK A01 T10401049  RH  093%=      5-min Rain = 0
KSW1 141147Z 08005KT M04/M05 A3034 RMK A01 T10401049  RH  093%=      5-min Rain = 0
KSW1 141148Z 08005KT M04/M05 A3034 RMK A01 T10401049  RH  094%=      5-min Rain = 0
KSW1 141149Z 08005KT M04/M05 A3034 RMK A01 T10401049  RH  094%=      5-min Rain = 0
KSW1 141150Z 08005KT M04/M05 A3034 RMK A01 T10401049  RH  094%=      5-min Rain = 0
KSW1 141151Z 09005KT M04/M05 A3034 RMK A01 T10401050  RH  093%=      5-min Rain = 0
KSW1 141152Z 08005KT M04/M05 A3034 RMK A01 T10411050  RH  093%=      5-min Rain = 0
KSW1 141153Z 08004KT M04/M05 A3034 RMK A01 T10401049  RH  094%=      5-min Rain = 0
KSW1 141154Z 07005KT M04/M05 A3034 RMK A01 T10401049  RH  094%=      5-min Rain = 0
KSW1 141155Z 07005KT M04/M05 A3034 RMK A01 T10401049  RH  094%=      5-min Rain = 0
KSW1 141156Z 07005KT M04/M05 A3034 RMK A01 T10411050  RH  094%=      5-min Rain = 0
KSW1 141157Z 07005KT M04/M05 A3034 RMK A01 T10411050  RH  094%=      5-min Rain = 0
KSW1 141158Z 07005KT M04/M05 A3034 RMK A01 T10411051  RH  093%=      5-min Rain = 0
KSW1 141159Z 07005KT M04/M05 A3034 RMK A01 T10421052  RH  093%=      5-min Rain = 0
KSW1 141200Z 07005KT M04/M05 A3034 RMK A01 T10431052  RH  093%=      5-min Rain = 0
KSW1 141201Z 07005KT M04/M05 A3034 RMK A01 T10421051  RH  094%=      5-min Rain = 0
KSW1 141202Z 07005KT M04/M05 A3034 RMK A01 T10431051  RH  094%=      5-min Rain = 0
KSW1 141203Z 07005KT M04/M05 A3034 RMK A01 T10431051  RH  094%=      5-min Rain = 0
KSW1 141204Z 07005KT M04/M05 A3034 RMK A01 T10431051  RH  094%=      5-min Rain = 0
KSW1 141205Z 08005KT M04/M05 A3034 RMK A01 T10431051  RH  094%=      5-min Rain = 0
KSW1 141206Z 08004KT M04/M05 A3034 RMK A01 T10431051  RH  094%=      5-min Rain = 0
KSW1 141207Z 08004KT M04/M05 A3034 RMK A01 T10431051  RH  094%=      5-min Rain = 0
KSW1 141208Z 07004KT M04/M05 A3034 RMK A01 T10431051  RH  094%=      5-min Rain = 0
KSW1 141209Z 07005KT M04/M05 A3034 RMK A01 T10431051  RH  094%=      5-min Rain = 0
KSW1 141210Z 06005KT M04/M05 A3034 RMK A01 T10441052  RH  094%=      5-min Rain = 0
KSW1 141211Z 06005KT M04/M05 A3034 RMK A01 T10441053  RH  093%=      5-min Rain = 0
KSW1 141212Z 06005KT M05/M05 A3034 RMK A01 T10451054  RH  093%=      5-min Rain = 0
KSW1 141213Z 06005KT M05/M05 A3034 RMK A01 T10451054  RH  093%=      5-min Rain = 0
KSW1 141214Z 06005KT M05/M05 A3034 RMK A01 T10451054  RH  094%=      5-min Rain = 0
KSW1 141215Z 06005KT M05/M05 A3034 RMK A01 T10461054  RH  094%=      5-min Rain = 0
KSW1 141216Z 06005KT M05/M05 A3034 RMK A01 T10461054  RH  094%=      5-min Rain = 0
KSW1 141217Z 07005KT M05/M05 A3034 RMK A01 T10461054  RH  094%=      5-min Rain = 0
KSW1 141218Z 06005KT M05/M05 A3034 RMK A01 T10461054  RH  094%=      5-min Rain = 0
KSW1 141219Z 07005KT M05/M05 A3034 RMK A01 T10461053  RH  094%=      5-min Rain = 0
KSW1 141220Z 07005KT M05/M05 A3035 RMK A01 T10451053  RH  094%=      5-min Rain = 0
KSW1 141221Z 07005KT M05/M05 A3035 RMK A01 T10451053  RH  095%=      5-min Rain = 0
KSW1 141222Z 07005KT M05/M05 A3035 RMK A01 T10451052  RH  095%=      5-min Rain = 0
KSW1 141223Z 07005KT M04/M05 A3034 RMK A01 T10441051  RH  095%=      5-min Rain = 0
KSW1 141224Z 06005KT M04/M05 A3034 RMK A01 T10441051  RH  095%=      5-min Rain = 0
KSW1 141225Z 06005KT M04/M05 A3034 RMK A01 T10441051  RH  095%=      5-min Rain = 0
KSW1 141226Z 07005KT M04/M05 A3034 RMK A01 T10431050  RH  095%=      5-min Rain = 0
KSW1 141227Z 06005KT M04/M05 A3034 RMK A01 T10431050  RH  095%=      5-min Rain = 0
KSW1 141228Z 05005KT M04/M05 A3034 RMK A01 T10431050  RH  095%=      5-min Rain = 0
KSW1 141229Z 05005KT M04/M05 A3034 RMK A01 T10431050  RH  095%=      5-min Rain = 0
KSW1 141230Z 04005KT M04/M05 A3035 RMK A01 T10431050  RH  095%=      5-min Rain = 0
KSW1 141231Z 04005KT M04/M05 A3035 RMK A01 T10431050  RH  095%=      5-min Rain = 0
KSW1 141232Z 04006KT M04/M05 A3035 RMK A01 T10421049  RH  095%=      5-min Rain = 0
KSW1 141233Z 04005KT M04/M05 A3035 RMK A01 T10421049  RH  095%=      5-min Rain = 0
KSW1 141234Z 04005KT M04/M05 A3035 RMK A01 T10421049  RH  095%=      5-min Rain = 0
KSW1 141235Z 05005KT M04/M05 A3035 RMK A01 T10421049  RH  095%=      5-min Rain = 0
KSW1 141236Z 05004KT M04/M05 A3035 RMK A01 T10411048  RH  095%=      5-min Rain = 0
KSW1 141237Z 05005KT M04/M05 A3035 RMK A01 T10401047  RH  095%=      5-min Rain = 0
KSW1 141238Z 05005KT M04/M05 A3035 RMK A01 T10401047  RH  095%=      5-min Rain = 0
KSW1 141239Z 06005KT M04/M05 A3035 RMK A01 T10401046  RH  095%=      5-min Rain = 0
KSW1 141240Z 06005KT M04/M05 A3035 RMK A01 T10401046  RH  095%=      5-min Rain = 0
KSW1 141241Z 06004KT M04/M05 A3035 RMK A01 T10391046  RH  095%=      5-min Rain = 0
KSW1 141242Z 06005KT M04/M05 A3035 RMK A01 T10391045  RH  095%=      5-min Rain = 0
KSW1 141243Z 06004KT M04/M05 A3035 RMK A01 T10381045  RH  095%=      5-min Rain = 0
KSW1 141244Z 06004KT M04/M04 A3035 RMK A01 T10381044  RH  095%=      5-min Rain = 0
KSW1 141245Z 05004KT M04/M04 A3035 RMK A01 T10371044  RH  095%=      5-min Rain = 0
KSW1 141246Z 05004KT M04/M05 A3035 RMK A01 T10381045  RH  095%=      5-min Rain = 0
KSW1 141247Z 05004KT M04/M04 A3035 RMK A01 T10381044  RH  095%=      5-min Rain = 0
KSW1 141248Z 06004KT M04/M04 A3035 RMK A01 T10371044  RH  095%=      5-min Rain = 0
KSW1 141249Z 05004KT M04/M04 A3035 RMK A01 T10371044  RH  095%=      5-min Rain = 0
KSW1 141250Z 06004KT M04/M04 A3035 RMK A01 T10371044  RH  095%=      5-min Rain = 0
KSW1 141251Z 07004KT M04/M04 A3035 RMK A01 T10371044  RH  095%=      5-min Rain = 0
KSW1 141252Z 07003KT M04/M04 A3035 RMK A01 T10361043  RH  095%=      5-min Rain = 0
KSW1 141253Z 07004KT M04/M04 A3035 RMK A01 T10361043  RH  095%=      5-min Rain = 0
KSW1 141254Z 06004KT M04/M04 A3035 RMK A01 T10351042  RH  095%=      5-min Rain = 0
KSW1 141255Z 06004KT M04/M04 A3035 RMK A01 T10351042  RH  095%=      5-min Rain = 0
KSW1 141256Z 06004KT M04/M04 A3035 RMK A01 T10361043  RH  095%=      5-min Rain = 0
KSW1 141257Z 06004KT M04/M04 A3035 RMK A01 T10361043  RH  095%=      5-min Rain = 0
KSW1 141258Z 07004KT M04/M04 A3035 RMK A01 T10361044  RH  095%=      5-min Rain = 0
KSW1 141259Z 07004KT M04/M04 A3035 RMK A01 T10351042  RH  095%=      5-min Rain = 0
KSW1 141300Z 06004KT M04/M04 A3035 RMK A01 T10351042  RH  095%=      5-min Rain = 0
KSW1 141301Z 07005KT M04/M04 A3035 RMK A01 T10351042  RH  095%=      5-min Rain = 0
KSW1 141302Z 07004KT M04/M04 A3035 RMK A01 T10351042  RH  095%=      5-min Rain = 0
KSW1 141303Z 08005KT M04/M04 A3035 RMK A01 T10351042  RH  095%=      5-min Rain = 0
KSW1 141304Z 07003KT M04/M04 A3035 RMK A01 T10351042  RH  095%=      5-min Rain = 0
KSW1 141305Z 08003KT M04/M04 A3035 RMK A01 T10351042  RH  095%=      5-min Rain = 0
KSW1 141306Z 07003KT M04/M04 A3035 RMK A01 T10351042  RH  095%=      5-min Rain = 0
KSW1 141307Z 07004KT M04/M04 A3035 RMK A01 T10351042  RH  095%=      5-min Rain = 0
KSW1 141308Z 07004KT M03/M04 A3035 RMK A01 T10341041  RH  095%=      5-min Rain = 0
KSW1 141309Z 08004KT M03/M04 A3035 RMK A01 T10341041  RH  095%=      5-min Rain = 0
KSW1 141310Z 07004KT M03/M04 A3035 RMK A01 T10341041  RH  095%=      5-min Rain = 0
KSW1 141311Z 06004KT M03/M04 A3035 RMK A01 T10331040  RH  095%=      5-min Rain = 0
KSW1 141312Z 06003KT M03/M04 A3035 RMK A01 T10341041  RH  095%=      5-min Rain = 0
KSW1 141313Z 07003KT M03/M04 A3035 RMK A01 T10341042  RH  095%=      5-min Rain = 0
KSW1 141314Z 08003KT M03/M04 A3036 RMK A01 T10341041  RH  095%=      5-min Rain = 0
KSW1 141315Z 11003KT M03/M04 A3036 RMK A01 T10341041  RH  095%=      5-min Rain = 0
KSW1 141316Z 11004KT M03/M04 A3036 RMK A01 T10331040  RH  095%=      5-min Rain = 0
KSW1 141317Z 12004KT M03/M04 A3035 RMK A01 T10301037  RH  095%=      5-min Rain = 0
KSW1 141318Z 12004KT M03/M04 A3035 RMK A01 T10291035  RH  096%=      5-min Rain = 0
KSW1 141319Z 12006KT M03/M03 A3036 RMK A01 T10281034  RH  096%=      5-min Rain = 0
KSW1 141320Z 13006KT M03/M03 A3036 RMK A01 T10261032  RH  096%=      5-min Rain = 0
KSW1 141321Z 14007KT M02/M03 A3035 RMK A01 T10241030  RH  096%=      5-min Rain = 0
KSW1 141322Z 14008KT M02/M03 A3035 RMK A01 T10231028  RH  096%=      5-min Rain = 0
KSW1 141323Z 14009KT M02/M03 A3035 RMK A01 T10221028  RH  096%=      5-min Rain = 0
KSW1 141324Z 14008KT M02/M03 A3035 RMK A01 T10211027  RH  096%=      5-min Rain = 0
KSW1 141325Z 13008KT M02/M03 A3035 RMK A01 T10201026  RH  096%=      5-min Rain = 0
KSW1 141326Z 14007KT M02/M03 A3036 RMK A01 T10201027  RH  095%=      5-min Rain = 0
KSW1 141327Z 14006KT M02/M03 A3036 RMK A01 T10201027  RH  095%=      5-min Rain = 0
KSW1 141328Z 11003KT M02/M03 A3036 RMK A01 T10191027  RH  095%=      5-min Rain = 0
KSW1 141329Z 09002KT M02/M03 A3036 RMK A01 T10221030  RH  094%=      5-min Rain = 0
KSW1 141330Z 09002KT M02/M03 A3036 RMK A01 T10241033  RH  093%=      5-min Rain = 0
KSW1 141331Z 07001KT M03/M04 A3036 RMK A01 T10251035  RH  093%=      5-min Rain = 0
KSW1 141332Z 08002KT M03/M04 A3036 RMK A01 T10261035  RH  093%=      5-min Rain = 0
KSW1 141333Z 08002KT M03/M04 A3036 RMK A01 T10261035  RH  093%=      5-min Rain = 0
KSW1 141334Z 09004KT M03/M04 A3036 RMK A01 T10261035  RH  094%=      5-min Rain = 0
KSW1 141335Z 10003KT M03/M03 A3036 RMK A01 T10251034  RH  094%=      5-min Rain = 0
KSW1 141336Z 12005KT M03/M03 A3036 RMK A01 T10251034  RH  094%=      5-min Rain = 0
KSW1 141337Z 13006KT M03/M03 A3036 RMK A01 T10251033  RH  094%=      5-min Rain = 0
KSW1 141338Z 14006KT M02/M03 A3036 RMK A01 T10231030  RH  095%=      5-min Rain = 0
KSW1 141339Z 13007KT M02/M03 A3036 RMK A01 T10211028  RH  095%=      5-min Rain = 0
KSW1 141340Z 12007KT M02/M03 A3036 RMK A01 T10201027  RH  095%=      5-min Rain = 0
KSW1 141341Z 14008KT M02/M03 A3036 RMK A01 T10191027  RH  095%=      5-min Rain = 0
KSW1 141342Z 13007KT M02/M03 A3036 RMK A01 T10201027  RH  095%=      5-min Rain = 0
KSW1 141343Z 13007KT M02/M03 A3036 RMK A01 T10191027  RH  095%=      5-min Rain = 0
KSW1 141344Z 13006KT M02/M03 A3036 RMK A01 T10191027  RH  094%=      5-min Rain = 0
KSW1 141345Z 12006KT M02/M03 A3036 RMK A01 T10191027  RH  094%=      5-min Rain = 0
KSW1 141346Z 13005KT M02/M03 A3036 RMK A01 T10191027  RH  094%=      5-min Rain = 0
KSW1 141347Z 13005KT M02/M03 A3036 RMK A01 T10191027  RH  094%=      5-min Rain = 0
KSW1 141348Z 14006KT M02/M03 A3036 RMK A01 T10191027  RH  094%=      5-min Rain = 0
KSW1 141349Z 13007KT M02/M03 A3036 RMK A01 T10191028  RH  094%=      5-min Rain = 0
KSW1 141350Z 14008KT M02/M03 A3036 RMK A01 T10191028  RH  094%=      5-min Rain = 0
KSW1 141351Z 13008KT M02/M03 A3036 RMK A01 T10191028  RH  094%=      5-min Rain = 0
KSW1 141352Z 13007KT M02/M03 A3036 RMK A01 T10191028  RH  094%=      5-min Rain = 0
KSW1 141353Z 13006KT M02/M03 A3036 RMK A01 T10191028  RH  094%=      5-min Rain = 0
KSW1 141354Z 14005KT M02/M03 A3036 RMK A01 T10191028  RH  094%=      5-min Rain = 0
KSW1 141355Z 13005KT M02/M03 A3036 RMK A01 T10191027  RH  094%=      5-min Rain = 0
KSW1 141356Z 13005KT M02/M03 A3036 RMK A01 T10191027  RH  094%=      5-min Rain = 0
KSW1 141357Z 13007KT M02/M03 A3036 RMK A01 T10191027  RH  094%=      5-min Rain = 0
KSW1 141358Z 14006KT M02/M03 A3036 RMK A01 T10191027  RH  094%=      5-min Rain = 0
KSW1 141359Z 13006KT M02/M03 A3036 RMK A01 T10191027  RH  094%=      5-min Rain = 0
KSW1 141400Z 14008KT M02/M03 A3036 RMK A01 T10191027  RH  094%=      5-min Rain = 0
KSW1 141401Z 15007KT M02/M03 A3036 RMK A01 T10191027  RH  094%=      5-min Rain = 0
KSW1 141402Z 14009KT M02/M03 A3036 RMK A01 T10191027  RH  094%=      5-min Rain = 0
KSW1 141403Z 15008KT M02/M03 A3036 RMK A01 T10191027  RH  094%=      5-min Rain = 0
KSW1 141404Z 14007KT M02/M03 A3036 RMK A01 T10191027  RH  094%=      5-min Rain = 0
KSW1 141405Z 14007KT M02/M03 A3036 RMK A01 T10191027  RH  094%=      5-min Rain = 0
KSW1 141406Z 15006KT M02/M03 A3036 RMK A01 T10191027  RH  094%=      5-min Rain = 0
KSW1 141407Z 14006KT M02/M03 A3036 RMK A01 T10191027  RH  094%=      5-min Rain = 0
KSW1 141408Z 13007KT M02/M03 A3036 RMK A01 T10191027  RH  094%=      5-min Rain = 0
KSW1 141409Z 13007KT M02/M03 A3036 RMK A01 T10191027  RH  094%=      5-min Rain = 0
KSW1 141410Z 13007KT M02/M03 A3036 RMK A01 T10181026  RH  094%=      5-min Rain = 0
KSW1 141411Z 13007KT M02/M03 A3037 RMK A01 T10181027  RH  094%=      5-min Rain = 0
KSW1 141412Z 13008KT M02/M03 A3037 RMK A01 T10181026  RH  094%=      5-min Rain = 0
KSW1 141413Z 15007KT M02/M03 A3036 RMK A01 T10181027  RH  094%=      5-min Rain = 0
KSW1 141414Z 15008KT M02/M03 A3036 RMK A01 T10181027  RH  094%=      5-min Rain = 0
KSW1 141415Z 15008KT M02/M03 A3036 RMK A01 T10181027  RH  094%=      5-min Rain = 0
KSW1 141416Z 13007KT M02/M03 A3036 RMK A01 T10181027  RH  094%=      5-min Rain = 0
KSW1 141417Z 14006KT M02/M03 A3036 RMK A01 T10181027  RH  094%=      5-min Rain = 0
KSW1 141418Z 14007KT M02/M03 A3036 RMK A01 T10181026  RH  094%=      5-min Rain = 0
KSW1 141419Z 13008KT M02/M03 A3036 RMK A01 T10181026  RH  094%=      5-min Rain = 0
KSW1 141420Z 15009KT M02/M03 A3037 RMK A01 T10181026  RH  094%=      5-min Rain = 0
KSW1 141421Z 15009KT M02/M03 A3037 RMK A01 T10181026  RH  094%=      5-min Rain = 0
KSW1 141422Z 14010KT M02/M03 A3037 RMK A01 T10181026  RH  094%=      5-min Rain = 0
KSW1 141423Z 14008KT M02/M03 A3037 RMK A01 T10171026  RH  094%=      5-min Rain = 0
KSW1 141424Z 15008KT M02/M03 A3037 RMK A01 T10181026  RH  094%=      5-min Rain = 0
KSW1 141425Z 15007KT M02/M03 A3037 RMK A01 T10171026  RH  094%=      5-min Rain = 0
KSW1 141426Z 15007KT M02/M03 A3037 RMK A01 T10171025  RH  094%=      5-min Rain = 0
KSW1 141427Z 15007KT M02/M03 A3037 RMK A01 T10171025  RH  094%=      5-min Rain = 0
KSW1 141428Z 15006KT M02/M03 A3037 RMK A01 T10161025  RH  094%=      5-min Rain = 0
KSW1 141429Z 15006KT M02/M02 A3037 RMK A01 T10161024  RH  094%=      5-min Rain = 0
KSW1 141430Z 15005KT M02/M02 A3037 RMK A01 T10161024  RH  094%=      5-min Rain = 0
KSW1 141431Z 16005KT M02/M02 A3037 RMK A01 T10151023  RH  094%=      5-min Rain = 0
KSW1 141432Z 15007KT M02/M02 A3037 RMK A01 T10151023  RH  094%=      5-min Rain = 0
KSW1 141433Z 15005KT M02/M02 A3037 RMK A01 T10151024  RH  094%=      5-min Rain = 0
KSW1 141434Z 15005KT M02/M02 A3037 RMK A01 T10161024  RH  094%=      5-min Rain = 0
KSW1 141435Z 14005KT M02/M02 A3037 RMK A01 T10151024  RH  094%=      5-min Rain = 0
KSW1 141436Z 15006KT M02/M02 A3037 RMK A01 T10151023  RH  094%=      5-min Rain = 0
KSW1 141437Z 14005KT M02/M02 A3037 RMK A01 T10151023  RH  094%=      5-min Rain = 0
KSW1 141438Z 14006KT M01/M02 A3037 RMK A01 T10141022  RH  094%=      5-min Rain = 0
KSW1 141439Z 16005KT M01/M02 A3037 RMK A01 T10141022  RH  094%=      5-min Rain = 0
KSW1 141440Z 15006KT M01/M02 A3037 RMK A01 T10141022  RH  094%=      5-min Rain = 0
KSW1 141441Z 15006KT M01/M02 A3037 RMK A01 T10141022  RH  094%=      5-min Rain = 0
KSW1 141442Z 16006KT M01/M02 A3037 RMK A01 T10141022  RH  094%=      5-min Rain = 0
KSW1 141443Z 14006KT M01/M02 A3037 RMK A01 T10141023  RH  094%=      5-min Rain = 0
KSW1 141444Z 15007KT M01/M02 A3037 RMK A01 T10141023  RH  094%=      5-min Rain = 0
KSW1 141445Z 15009KT M01/M02 A3037 RMK A01 T10141023  RH  094%=      5-min Rain = 0
KSW1 141446Z 15010KT M01/M02 A3037 RMK A01 T10141024  RH  093%=      5-min Rain = 0
KSW1 141447Z 15009KT M01/M02 A3037 RMK A01 T10141024  RH  093%=      5-min Rain = 0
KSW1 141448Z 16008KT M01/M02 A3037 RMK A01 T10141024  RH  093%=      5-min Rain = 0
KSW1 141449Z 15006KT M01/M02 A3037 RMK A01 T10141024  RH  093%=      5-min Rain = 0
KSW1 141450Z 15007KT M01/M02 A3037 RMK A01 T10141024  RH  093%=      5-min Rain = 0
KSW1 141451Z 14007KT M01/M02 A3037 RMK A01 T10141024  RH  093%=      5-min Rain = 0
KSW1 141452Z 15005KT M01/M02 A3037 RMK A01 T10131024  RH  093%=      5-min Rain = 0
KSW1 141453Z 15005KT M01/M02 A3037 RMK A01 T10131023  RH  093%=      5-min Rain = 0
KSW1 141454Z 15007KT M01/M02 A3037 RMK A01 T10121021  RH  093%=      5-min Rain = 0
KSW1 141455Z 16008KT M01/M02 A3037 RMK A01 T10121022  RH  093%=      5-min Rain = 0
KSW1 141456Z 16009KT M01/M02 A3037 RMK A01 T10121023  RH  093%=      5-min Rain = 0
KSW1 141457Z 16009KT M01/M02 A3037 RMK A01 T10131023  RH  092%=      5-min Rain = 0
KSW1 141458Z 15008KT M01/M02 A3037 RMK A01 T10121023  RH  093%=      5-min Rain = 0
KSW1 141459Z 15010KT M01/M02 A3037 RMK A01 T10121023  RH  092%=      5-min Rain = 0
KSW1 141500Z 16011KT M01/M02 A3037 RMK A01 T10121023  RH  092%=      5-min Rain = 0
KSW1 141501Z 16010KT M01/M02 A3037 RMK A01 T10131024  RH  092%=      5-min Rain = 0
KSW1 141502Z 15011KT M01/M02 A3037 RMK A01 T10131024  RH  092%=      5-min Rain = 0
KSW1 141503Z 16010KT M01/M02 A3037 RMK A01 T10131024  RH  092%=      5-min Rain = 0
KSW1 141504Z 15009KT M01/M02 A3037 RMK A01 T10131024  RH  092%=      5-min Rain = 0
KSW1 141505Z 15010KT M01/M02 A3037 RMK A01 T10131024  RH  092%=      5-min Rain = 0
KSW1 141506Z 15010KT M01/M03 A3037 RMK A01 T10131025  RH  092%=      5-min Rain = 0
KSW1 141507Z 15008KT M01/M03 A3037 RMK A01 T10131025  RH  092%=      5-min Rain = 0
KSW1 141508Z 15009KT M01/M02 A3037 RMK A01 T10131023  RH  092%=      5-min Rain = 0
KSW1 141509Z 15008KT M01/M02 A3038 RMK A01 T10121023  RH  092%=      5-min Rain = 0
KSW1 141510Z 15009KT M01/M02 A3038 RMK A01 T10121023  RH  092%=      5-min Rain = 0
KSW1 141511Z 15011KT M01/M02 A3038 RMK A01 T10121023  RH  092%=      5-min Rain = 0
KSW1 141512Z 14010KT M01/M02 A3038 RMK A01 T10121024  RH  092%=      5-min Rain = 0
KSW1 141513Z 14007KT M01/M02 A3038 RMK A01 T10121024  RH  092%=      5-min Rain = 0
KSW1 141514Z 15010KT M01/M02 A3037 RMK A01 T10121023  RH  092%=      5-min Rain = 0
KSW1 141515Z 15009KT M01/M02 A3037 RMK A01 T10121024  RH  092%=      5-min Rain = 0
KSW1 141516Z 15011KT M01/M02 A3037 RMK A01 T10121024  RH  092%=      5-min Rain = 0
KSW1 141517Z 14011KT M01/M02 A3037 RMK A01 T10121024  RH  092%=      5-min Rain = 0
KSW1 141518Z 14010KT M01/M02 A3038 RMK A01 T10111024  RH  091%=      5-min Rain = 0
KSW1 141519Z 14011KT M01/M02 A3038 RMK A01 T10111024  RH  091%=      5-min Rain = 0
KSW1 141520Z 15010KT M01/M03 A3038 RMK A01 T10121025  RH  091%=      5-min Rain = 0
KSW1 141521Z 16011KT M01/M03 A3037 RMK A01 T10121025  RH  091%=      5-min Rain = 0
KSW1 141522Z 15011KT M01/M02 A3038 RMK A01 T10111024  RH  091%=      5-min Rain = 0
KSW1 141523Z 14010KT M01/M02 A3038 RMK A01 T10111024  RH  091%=      5-min Rain = 0
KSW1 141524Z 15009KT M01/M02 A3038 RMK A01 T10111024  RH  091%=      5-min Rain = 0
KSW1 141525Z 15009KT M01/M02 A3038 RMK A01 T10111024  RH  091%=      5-min Rain = 0
KSW1 141526Z 15009KT M01/M02 A3038 RMK A01 T10101024  RH  091%=      5-min Rain = 0
KSW1 141527Z 14009KT M01/M02 A3038 RMK A01 T10101024  RH  090%=      5-min Rain = 0
KSW1 141528Z 15008KT M01/M02 A3038 RMK A01 T10101024  RH  091%=      5-min Rain = 0
KSW1 141529Z 15009KT M01/M02 A3038 RMK A01 T10091022  RH  091%=      5-min Rain = 0
KSW1 141530Z 15008KT M01/M02 A3038 RMK A01 T10091022  RH  091%=      5-min Rain = 0
KSW1 141531Z 14006KT M01/M02 A3038 RMK A01 T10091023  RH  090%=      5-min Rain = 0
KSW1 141532Z 14006KT M01/M02 A3038 RMK A01 T10091023  RH  091%=      5-min Rain = 0
KSW1 141533Z 15007KT M01/M02 A3038 RMK A01 T10091023  RH  091%=      5-min Rain = 0
KSW1 141534Z 15009KT M01/M02 A3038 RMK A01 T10091023  RH  091%=      5-min Rain = 0
KSW1 141535Z 14007KT M01/M02 A3038 RMK A01 T10091023  RH  090%=      5-min Rain = 0
KSW1 141536Z 14007KT M01/M02 A3038 RMK A01 T10091022  RH  091%=      5-min Rain = 0
KSW1 141537Z 14009KT M01/M02 A3038 RMK A01 T10071020  RH  091%=      5-min Rain = 0
KSW1 141538Z 14011KT M01/M02 A3038 RMK A01 T10071021  RH  090%=      5-min Rain = 0
KSW1 141539Z 14012KT M01/M02 A3038 RMK A01 T10081023  RH  090%=      5-min Rain = 0
KSW1 141540Z 14009KT M01/M02 A3038 RMK A01 T10081024  RH  089%=      5-min Rain = 0
KSW1 141541Z 13008KT M01/M02 A3038 RMK A01 T10081023  RH  089%=      5-min Rain = 0
KSW1 141542Z 13012KT M01/M02 A3038 RMK A01 T10071020  RH  091%=      5-min Rain = 0
KSW1 141543Z 13011KT M01/M02 A3038 RMK A01 T10061021  RH  090%=      5-min Rain = 0
KSW1 141544Z 14010KT M01/M02 A3038 RMK A01 T10071022  RH  090%=      5-min Rain = 0
KSW1 141545Z 14010KT M01/M02 A3038 RMK A01 T10061020  RH  090%=      5-min Rain = 0
KSW1 141546Z 13008KT M01/M02 A3038 RMK A01 T10061021  RH  090%=      5-min Rain = 0
KSW1 141547Z 14009KT M01/M02 A3038 RMK A01 T10061020  RH  090%=      5-min Rain = 0
KSW1 141548Z 14008KT M01/M02 A3038 RMK A01 T10061021  RH  090%=      5-min Rain = 0
KSW1 141549Z 15010KT M01/M02 A3038 RMK A01 T10051022  RH  089%=      5-min Rain = 0
KSW1 141550Z 15009KT M01/M02 A3038 RMK A01 T10061023  RH  088%=      5-min Rain = 0
KSW1 141551Z 14010KT M01/M02 A3038 RMK A01 T10061022  RH  089%=      5-min Rain = 0
KSW1 141552Z 14009KT M01/M02 A3038 RMK A01 T10061022  RH  089%=      5-min Rain = 0
KSW1 141553Z 14008KT M01/M02 A3038 RMK A01 T10071024  RH  088%=      5-min Rain = 0
KSW1 141554Z 15007KT M01/M02 A3038 RMK A01 T10071024  RH  089%=      5-min Rain = 0
KSW1 141555Z 14007KT M01/M02 A3038 RMK A01 T10071023  RH  089%=      5-min Rain = 0
KSW1 141556Z 13006KT M01/M02 A3038 RMK A01 T10071023  RH  089%=      5-min Rain = 0
KSW1 141557Z 13007KT M01/M02 A3038 RMK A01 T10071021  RH  090%=      5-min Rain = 0
KSW1 141558Z 13006KT M01/M02 A3038 RMK A01 T10061020  RH  090%=      5-min Rain = 0
KSW1 141559Z 12009KT M01/M02 A3038 RMK A01 T10061020  RH  090%=      5-min Rain = 0
KSW1 141600Z 12008KT M01/M02 A3038 RMK A01 T10051019  RH  090%=      5-min Rain = 0
KSW1 141601Z 13008G13KT M00/M02 A3038 RMK A01 T10031016  RH  091%=      5-min Rain = 0
KSW1 141602Z 13010KT M00/M02 A3038 RMK A01 T10021016  RH  090%=      5-min Rain = 0
KSW1 141603Z 13009KT M00/M02 A3038 RMK A01 T10021018  RH  089%=      5-min Rain = 0
KSW1 141604Z 13009KT M00/M02 A3038 RMK A01 T10031019  RH  089%=      5-min Rain = 0
KSW1 141605Z 14011KT M00/M02 A3038 RMK A01 T10021018  RH  089%=      5-min Rain = 0
KSW1 141606Z 14009KT M00/M02 A3038 RMK A01 T10021019  RH  088%=      5-min Rain = 0
KSW1 141607Z 14009KT M00/M02 A3038 RMK A01 T10021018  RH  089%=      5-min Rain = 0
KSW1 141608Z 13009KT M00/M02 A3038 RMK A01 T10011017  RH  089%=      5-min Rain = 0
KSW1 141609Z 13011KT 00/02 A3038 RMK A01 T00000-17  RH  088%=      5-min Rain = 0
KSW1 141610Z 13009KT 00/02 A3038 RMK A01 T00-00-18  RH  087%=      5-min Rain = 0
KSW1 141611Z 14010KT 00/M02 A3038 RMK A01 T00011017  RH  088%=      5-min Rain = 0
KSW1 141612Z 13010KT 00/M02 A3038 RMK A01 T00011017  RH  087%=      5-min Rain = 0
KSW1 141613Z 13010KT 00/M02 A3038 RMK A01 T00021016  RH  088%=      5-min Rain = 0
KSW1 141614Z 12009KT 00/M02 A3038 RMK A01 T00021018  RH  087%=      5-min Rain = 0
KSW1 141615Z 12010KT 00/M02 A3038 RMK A01 T00011018  RH  087%=      5-min Rain = 0
KSW1 141616Z 13008KT 00/02 A3038 RMK A01 T00000-20  RH  087%=      5-min Rain = 0
KSW1 141617Z 13010KT 00/02 A3038 RMK A01 T00000-18  RH  087%=      5-min Rain = 0
KSW1 141618Z 13009KT 00/02 A3038 RMK A01 T00000-18  RH  087%=      5-min Rain = 0
KSW1 141619Z 12008KT 00/M02 A3038 RMK A01 T00011020  RH  086%=      5-min Rain = 0
KSW1 141620Z 12009KT 00/M02 A3038 RMK A01 T00021016  RH  087%=      5-min Rain = 0
KSW1 141621Z 12011KT 00/M02 A3038 RMK A01 T00041015  RH  087%=      5-min Rain = 0
KSW1 141622Z 13011KT 01/M02 A3038 RMK A01 T00051015  RH  086%=      5-min Rain = 0
KSW1 141623Z 14008KT 00/M02 A3038 RMK A01 T00041018  RH  085%=      5-min Rain = 0
KSW1 141624Z 14008KT 00/M02 A3038 RMK A01 T00031019  RH  085%=      5-min Rain = 0
KSW1 141625Z 15007KT 00/M02 A3038 RMK A01 T00021021  RH  085%=      5-min Rain = 0
KSW1 141626Z 15008KT 00/M02 A3038 RMK A01 T00011020  RH  086%=      5-min Rain = 0
KSW1 141627Z 15008KT 00/M02 A3038 RMK A01 T00021019  RH  086%=      5-min Rain = 0
KSW1 141628Z 15007KT 00/M02 A3038 RMK A01 T00031018  RH  086%=      5-min Rain = 0
KSW1 141629Z 15010KT 01/M02 A3038 RMK A01 T00051017  RH  086%=      5-min Rain = 0
KSW1 141630Z 14009KT 00/M02 A3038 RMK A01 T00041020  RH  084%=      5-min Rain = 0
KSW1 141631Z 15009KT 00/M02 A3038 RMK A01 T00041020  RH  083%=      5-min Rain = 0
KSW1 141632Z 16008KT 01/M02 A3038 RMK A01 T00051018  RH  084%=      5-min Rain = 0
KSW1 141633Z 15007KT 01/M02 A3038 RMK A01 T00061020  RH  083%=      5-min Rain = 0
KSW1 141634Z 14008KT 01/M02 A3038 RMK A01 T00071016  RH  084%=      5-min Rain = 0
KSW1 141635Z 14008KT 01/M02 A3038 RMK A01 T00081016  RH  084%=      5-min Rain = 0
KSW1 141636Z 15008KT 01/M02 A3038 RMK A01 T00091017  RH  083%=      5-min Rain = 0
KSW1 141637Z 14008KT 01/M02 A3038 RMK A01 T00101017  RH  082%=      5-min Rain = 0
KSW1 141638Z 13008KT 01/M02 A3038 RMK A01 T00091018  RH  082%=      5-min Rain = 0
KSW1 141639Z 13009KT 01/M02 A3038 RMK A01 T00081018  RH  083%=      5-min Rain = 0
KSW1 141640Z 13008KT 01/M02 A3038 RMK A01 T00061020  RH  083%=      5-min Rain = 0
KSW1 141641Z 14009KT 01/M02 A3038 RMK A01 T00061019  RH  083%=      5-min Rain = 0
KSW1 141642Z 15007KT 01/M02 A3038 RMK A01 T00081016  RH  084%=      5-min Rain = 0
KSW1 141643Z 13010KT 01/M01 A3038 RMK A01 T00121011  RH  085%=      5-min Rain = 0
KSW1 141644Z 13010KT 01/M02 A3038 RMK A01 T00121015  RH  082%=      5-min Rain = 0
KSW1 141645Z 14008KT 01/M02 A3038 RMK A01 T00101018  RH  082%=      5-min Rain = 0
KSW1 141646Z 12009KT 01/M02 A3038 RMK A01 T00091016  RH  083%=      5-min Rain = 0
KSW1 141647Z 12006KT 01/M02 A3038 RMK A01 T00091018  RH  082%=      5-min Rain = 0
KSW1 141648Z 14007KT 01/M02 A3038 RMK A01 T00081017  RH  083%=      5-min Rain = 0
KSW1 141649Z 14005KT 01/M02 A3038 RMK A01 T00091019  RH  082%=      5-min Rain = 0
KSW1 141650Z 13009KT 01/M01 A3037 RMK A01 T00121013  RH  084%=      5-min Rain = 0
KSW1 141651Z 12008KT 02/M01 A3037 RMK A01 T00151013  RH  082%=      5-min Rain = 0
KSW1 141652Z 13009KT 02/M02 A3037 RMK A01 T00151015  RH  080%=      5-min Rain = 0
KSW1 141653Z 13007KT 01/M02 A3037 RMK A01 T00131018  RH  080%=      5-min Rain = 0
KSW1 141654Z 15006G11KT 01/M01 A3037 RMK A01 T00141013  RH  082%=      5-min Rain = 0
KSW1 141655Z 15010KT 02/M01 A3037 RMK A01 T00171012  RH  081%=      5-min Rain = 0
KSW1 141656Z 14007G12KT 02/M02 A3037 RMK A01 T00181015  RH  079%=      5-min Rain = 0
KSW1 141657Z 15008KT 02/M02 A3037 RMK A01 T00171016  RH  079%=      5-min Rain = 0
KSW1 141658Z 15009KT 02/M02 A3037 RMK A01 T00171015  RH  079%=      5-min Rain = 0
KSW1 141659Z 15006KT 02/M02 A3037 RMK A01 T00191016  RH  078%=      5-min Rain = 0
KSW1 141700Z 15008KT 02/M01 A3037 RMK A01 T00181014  RH  079%=      5-min Rain = 0
KSW1 141701Z 14009KT 02/M01 A3037 RMK A01 T00201014  RH  078%=      5-min Rain = 0
KSW1 141702Z 15007KT 02/M02 A3037 RMK A01 T00191017  RH  077%=      5-min Rain = 0
KSW1 141703Z 15006KT 02/M01 A3037 RMK A01 T00191013  RH  079%=      5-min Rain = 0
KSW1 141704Z 13008KT 02/M02 A3037 RMK A01 T00201015  RH  078%=      5-min Rain = 0
KSW1 141705Z 13009KT 02/M02 A3037 RMK A01 T00181019  RH  076%=      5-min Rain = 0
KSW1 141706Z 14008KT 02/M01 A3037 RMK A01 T00171014  RH  080%=      5-min Rain = 0
KSW1 141707Z 13009KT 02/M01 A3037 RMK A01 T00201013  RH  079%=      5-min Rain = 0
KSW1 141708Z 13009KT 02/M01 A3037 RMK A01 T00211014  RH  078%=      5-min Rain = 0
KSW1 141709Z 13009KT 02/M02 A3037 RMK A01 T00201016  RH  077%=      5-min Rain = 0
KSW1 141710Z 12009KT 02/M02 A3037 RMK A01 T00201015  RH  078%=      5-min Rain = 0
KSW1 141711Z 12007KT 02/M01 A3037 RMK A01 T00211011  RH  079%=      5-min Rain = 0
KSW1 141712Z 14009KT 02/M01 A3037 RMK A01 T00241009  RH  079%=      5-min Rain = 0
KSW1 141713Z 13007KT 03/M01 A3036 RMK A01 T00251013  RH  076%=      5-min Rain = 0
KSW1 141714Z 12008KT 03/M01 A3036 RMK A01 T00251012  RH  077%=      5-min Rain = 0
KSW1 141715Z 14010KT 03/M01 A3036 RMK A01 T00261013  RH  076%=      5-min Rain = 0
KSW1 141716Z 17008KT 03/M02 A3036 RMK A01 T00261016  RH  074%=      5-min Rain = 0
KSW1 141717Z 17006KT 02/M02 A3036 RMK A01 T00221019  RH  074%=      5-min Rain = 0
KSW1 141718Z 16009KT 02/M02 A3036 RMK A01 T00211015  RH  077%=      5-min Rain = 0
KSW1 141719Z 15008KT 02/M02 A3036 RMK A01 T00221015  RH  076%=      5-min Rain = 0
KSW1 141720Z 14009KT 02/M01 A3036 RMK A01 T00241014  RH  076%=      5-min Rain = 0
KSW1 141721Z 16009KT 03/M02 A3036 RMK A01 T00261017  RH  073%=      5-min Rain = 0
KSW1 141722Z 13009KT 03/M02 A3036 RMK A01 T00251018  RH  073%=      5-min Rain = 0
KSW1 141723Z 15008KT 02/M02 A3036 RMK A01 T00231020  RH  073%=      5-min Rain = 0
KSW1 141724Z 14006KT 02/M02 A3036 RMK A01 T00231015  RH  076%=      5-min Rain = 0
KSW1 141725Z 13007KT 03/M01 A3036 RMK A01 T00251012  RH  077%=      5-min Rain = 0
KSW1 141726Z 12007KT 03/M01 A3036 RMK A01 T00281009  RH  077%=      5-min Rain = 0
KSW1 141727Z 13008KT 03/M01 A3036 RMK A01 T00291011  RH  075%=      5-min Rain = 0
KSW1 141728Z 11009KT 03/M01 A3036 RMK A01 T00291014  RH  073%=      5-min Rain = 0
KSW1 141729Z 13010KT 03/M01 A3036 RMK A01 T00281013  RH  075%=      5-min Rain = 0
KSW1 141730Z 12007KT 03/M02 A3036 RMK A01 T00271016  RH  073%=      5-min Rain = 0
KSW1 141731Z 12008KT 03/M01 A3036 RMK A01 T00261013  RH  075%=      5-min Rain = 0
KSW1 141732Z 11008KT 03/M01 A3036 RMK A01 T00281010  RH  076%=      5-min Rain = 0
KSW1 141733Z 10006KT 03/M01 A3036 RMK A01 T00281013  RH  075%=      5-min Rain = 0
KSW1 141734Z 13007KT 03/M01 A3036 RMK A01 T00281012  RH  075%=      5-min Rain = 0
KSW1 141735Z 13005KT 03/M01 A3036 RMK A01 T00291012  RH  074%=      5-min Rain = 0
KSW1 141736Z 13007KT 03/M01 A3035 RMK A01 T00301012  RH  074%=      5-min Rain = 0
KSW1 141737Z 15010KT 03/M01 A3035 RMK A01 T00321012  RH  073%=      5-min Rain = 0
KSW1 141738Z 13008KT 04/M01 A3035 RMK A01 T00351011  RH  071%=      5-min Rain = 0
KSW1 141739Z 13008KT 04/M02 A3035 RMK A01 T00351016  RH  069%=      5-min Rain = 0
KSW1 141740Z 12007KT 04/M02 A3035 RMK A01 T00351015  RH  070%=      5-min Rain = 0
KSW1 141741Z 12009KT 04/M02 A3035 RMK A01 T00351015  RH  069%=      5-min Rain = 0
KSW1 141742Z 13009KT 04/M01 A3035 RMK A01 T00351014  RH  070%=      5-min Rain = 0
KSW1 141743Z 12009KT 04/M01 A3035 RMK A01 T00381009  RH  071%=      5-min Rain = 0
KSW1 141744Z 12009KT 04/M01 A3035 RMK A01 T00391012  RH  069%=      5-min Rain = 0
KSW1 141745Z 13007KT 04/M01 A3035 RMK A01 T00381013  RH  069%=      5-min Rain = 0
KSW1 141746Z 14006KT 04/M01 A3035 RMK A01 T00391013  RH  069%=      5-min Rain = 0
KSW1 141747Z 13008KT 04/M01 A3035 RMK A01 T00401007  RH  071%=      5-min Rain = 0
KSW1 141748Z 12008KT 04/M01 A3035 RMK A01 T00401013  RH  068%=      5-min Rain = 0
KSW1 141749Z 13009KT 04/M01 A3035 RMK A01 T00391011  RH  070%=      5-min Rain = 0
KSW1 141750Z 15007KT 04/M01 A3035 RMK A01 T00391012  RH  070%=      5-min Rain = 0
KSW1 141751Z 12008KT 04/M01 A3035 RMK A01 T00401009  RH  070%=      5-min Rain = 0
KSW1 141752Z 14006KT 04/M01 A3035 RMK A01 T00421007  RH  070%=      5-min Rain = 0
KSW1 141753Z 14009KT 04/M01 A3034 RMK A01 T00431011  RH  068%=      5-min Rain = 0
KSW1 141754Z 14009KT 04/M02 A3034 RMK A01 T00431015  RH  066%=      5-min Rain = 0
KSW1 141755Z 15011KT 05/M01 A3034 RMK A01 T00451010  RH  068%=      5-min Rain = 0
KSW1 141756Z 13012KT 05/M02 A3034 RMK A01 T00471015  RH  064%=      5-min Rain = 0
KSW1 141757Z 13009KT 04/M02 A3034 RMK A01 T00441018  RH  064%=      5-min Rain = 0
KSW1 141758Z 13009KT 04/M02 A3034 RMK A01 T00441015  RH  066%=      5-min Rain = 0
KSW1 141759Z 13007KT 05/M01 A3034 RMK A01 T00451014  RH  065%=      5-min Rain = 0
KSW1 141800Z 14009G14KT 05/M01 A3034 RMK A01 T00481012  RH  065%=      5-min Rain = 0
KSW1 141801Z 15009KT 05/M01 A3034 RMK A01 T00491014  RH  064%=      5-min Rain = 0
KSW1 141802Z 14009KT 05/M01 A3034 RMK A01 T00481012  RH  065%=      5-min Rain = 0
KSW1 141803Z 14010KT 05/M02 A3034 RMK A01 T00481015  RH  064%=      5-min Rain = 0
KSW1 141804Z 13007KT 05/M02 A3034 RMK A01 T00471017  RH  063%=      5-min Rain = 0
KSW1 141805Z 12009KT 05/M02 A3034 RMK A01 T00461017  RH  064%=      5-min Rain = 0
KSW1 141806Z 12008KT 05/M01 A3034 RMK A01 T00461013  RH  066%=      5-min Rain = 0
KSW1 141807Z 13009KT 05/M01 A3034 RMK A01 T00461014  RH  065%=      5-min Rain = 0
KSW1 141808Z 12010KT 05/M01 A3034 RMK A01 T00451012  RH  066%=      5-min Rain = 0
KSW1 141809Z 13008KT 04/M01 A3034 RMK A01 T00441013  RH  066%=      5-min Rain = 0
KSW1 141810Z 13007KT 05/M01 A3034 RMK A01 T00461010  RH  067%=      5-min Rain = 0
KSW1 141811Z 13007KT 05/M01 A3033 RMK A01 T00491012  RH  065%=      5-min Rain = 0
KSW1 141812Z 13008KT 05/M01 A3033 RMK A01 T00511008  RH  066%=      5-min Rain = 0
KSW1 141813Z 13007KT 05/M01 A3033 RMK A01 T00541011  RH  063%=      5-min Rain = 0
KSW1 141814Z 15009KT 05/M01 A3033 RMK A01 T00541014  RH  061%=      5-min Rain = 0
KSW1 141815Z 15007KT 06/M02 A3033 RMK A01 T00551018  RH  059%=      5-min Rain = 0
KSW1 141816Z 13008KT 05/M02 A3033 RMK A01 T00521019  RH  060%=      5-min Rain = 0
KSW1 141817Z 14011KT 06/M01 A3033 RMK A01 T00561014  RH  061%=      5-min Rain = 0
KSW1 141818Z 15011KT 06/M02 A3033 RMK A01 T00581020  RH  057%=      5-min Rain = 0
KSW1 141819Z 15010KT 06/M02 A3033 RMK A01 T00551022  RH  057%=      5-min Rain = 0
KSW1 141820Z 14008KT 06/M02 A3033 RMK A01 T00551019  RH  059%=      5-min Rain = 0
KSW1 141821Z 15006KT 06/M01 A3033 RMK A01 T00561014  RH  061%=      5-min Rain = 0
KSW1 141822Z 14008KT 06/M01 A3033 RMK A01 T00601009  RH  061%=      5-min Rain = 0
KSW1 141823Z 15006KT 06/M01 A3033 RMK A01 T00611013  RH  059%=      5-min Rain = 0
KSW1 141824Z 15006KT 06/M01 A3033 RMK A01 T00591011  RH  061%=      5-min Rain = 0
KSW1 141825Z 15007KT 06/M01 A3033 RMK A01 T00591011  RH  061%=      5-min Rain = 0
KSW1 141826Z 16006KT 06/M00 A3033 RMK A01 T00611004  RH  063%=      5-min Rain = 0
KSW1 141827Z 17007KT 06/M01 A3033 RMK A01 T00641010  RH  059%=      5-min Rain = 0
KSW1 141828Z 16010KT 07/M01 A3032 RMK A01 T00651013  RH  057%=      5-min Rain = 0
KSW1 141829Z 17010KT 06/M02 A3032 RMK A01 T00641015  RH  057%=      5-min Rain = 0
KSW1 141830Z 17008KT 06/M02 A3032 RMK A01 T00621015  RH  058%=      5-min Rain = 0
KSW1 141831Z 15011KT 06/M01 A3032 RMK A01 T00621014  RH  058%=      5-min Rain = 0
KSW1 141832Z 15010KT 06/M02 A3032 RMK A01 T00621018  RH  056%=      5-min Rain = 0
KSW1 141833Z 17011KT 06/M02 A3032 RMK A01 T00621019  RH  056%=      5-min Rain = 0
KSW1 141834Z 17010KT 06/M02 A3032 RMK A01 T00601015  RH  058%=      5-min Rain = 0
KSW1 141835Z 17008KT 06/M02 A3032 RMK A01 T00581019  RH  057%=      5-min Rain = 0
KSW1 141836Z 17007KT 06/M02 A3032 RMK A01 T00561019  RH  059%=      5-min Rain = 0
KSW1 141837Z 16008KT 06/M01 A3032 RMK A01 T00581010  RH  062%=      5-min Rain = 0
KSW1 141838Z 17008KT 06/M01 A3032 RMK A01 T00641008  RH  060%=      5-min Rain = 0
KSW1 141839Z 17008KT 07/M01 A3032 RMK A01 T00661012  RH  058%=      5-min Rain = 0
KSW1 141840Z 17007KT 06/M02 A3032 RMK A01 T00631016  RH  057%=      5-min Rain = 0
KSW1 141841Z 14006KT 06/M01 A3032 RMK A01 T00621014  RH  058%=      5-min Rain = 0
KSW1 141842Z 14005KT 06/M01 A3032 RMK A01 T00641012  RH  058%=      5-min Rain = 0
KSW1 141843Z 17005KT 06/M01 A3032 RMK A01 T00641012  RH  058%=      5-min Rain = 0
KSW1 141844Z 14010KT 07/M01 A3031 RMK A01 T00661008  RH  059%=      5-min Rain = 0
KSW1 141845Z 15009KT 07/M01 A3031 RMK A01 T00681008  RH  058%=      5-min Rain = 0
KSW1 141846Z 15010KT 07/M01 A3031 RMK A01 T00691013  RH  056%=      5-min Rain = 0
KSW1 141847Z 14011KT 07/M01 A3031 RMK A01 T00681012  RH  057%=      5-min Rain = 0
KSW1 141848Z 13008KT 07/M01 A3031 RMK A01 T00681013  RH  056%=      5-min Rain = 0
KSW1 141849Z 16009KT 07/M01 A3031 RMK A01 T00681014  RH  056%=      5-min Rain = 0
KSW1 141850Z 15010KT 07/M01 A3031 RMK A01 T00691012  RH  056%=      5-min Rain = 0
KSW1 141851Z 15014KT 07/M01 A3031 RMK A01 T00701012  RH  056%=      5-min Rain = 0
KSW1 141852Z 16011KT 07/M01 A3031 RMK A01 T00701010  RH  056%=      5-min Rain = 0
KSW1 141853Z 17011KT 07/M01 A3031 RMK A01 T00711010  RH  056%=      5-min Rain = 0
KSW1 141854Z 19010KT 07/M01 A3031 RMK A01 T00691008  RH  058%=      5-min Rain = 0
KSW1 141855Z 18009KT 07/M01 A3031 RMK A01 T00671005  RH  060%=      5-min Rain = 0
KSW1 141856Z 17009KT 07/M01 A3031 RMK A01 T00661008  RH  059%=      5-min Rain = 0
KSW1 141857Z 18007KT 07/M01 A3031 RMK A01 T00661011  RH  058%=      5-min Rain = 0
KSW1 141858Z 16011KT 07/M01 A3031 RMK A01 T00661007  RH  060%=      5-min Rain = 0
KSW1 141859Z 14011KT 07/M01 A3031 RMK A01 T00681008  RH  058%=      5-min Rain = 0
KSW1 141900Z 15009KT 07/M01 A3031 RMK A01 T00721006  RH  058%=      5-min Rain = 0
KSW1 141901Z 18008KT 07/M00 A3031 RMK A01 T00741004  RH  058%=      5-min Rain = 0
KSW1 141902Z 17009KT 07/M01 A3031 RMK A01 T00741007  RH  057%=      5-min Rain = 0
KSW1 141903Z 15010KT 08/M00 A3031 RMK A01 T00751002  RH  058%=      5-min Rain = 0
KSW1 141904Z 17011KT 08/M00 A3031 RMK A01 T00781003  RH  057%=      5-min Rain = 0
KSW1 141905Z 18008KT 08/M00 A3031 RMK A01 T00781004  RH  056%=      5-min Rain = 0
KSW1 141906Z 17008KT 08/M00 A3031 RMK A01 T00761002  RH  058%=      5-min Rain = 0
KSW1 141907Z 17011KT 08/M00 A303 RMK A01 T00761004  RH  057%=      5-min Rain = 0
KSW1 141908Z 18010KT 08/M00 A303 RMK A01 T00761004  RH  057%=      5-min Rain = 0
KSW1 141909Z 18009KT 08/M00 A303 RMK A01 T00761002  RH  058%=      5-min Rain = 0
KSW1 141910Z 19010KT 08/M00 A303 RMK A01 T00751003  RH  058%=      5-min Rain = 0
KSW1 141911Z 18009KT 07/M01 A303 RMK A01 T00731005  RH  058%=      5-min Rain = 0
KSW1 141912Z 19012KT 07/M00 A303 RMK A01 T00731004  RH  058%=      5-min Rain = 0
KSW1 141913Z 19011KT 07/00 A303 RMK A01 T00730001  RH  060%=      5-min Rain = 0
KSW1 141914Z 20009KT 07/00 A303 RMK A01 T007300-0  RH  059%=      5-min Rain = 0
KSW1 141915Z 18006KT 07/00 A303 RMK A01 T00740001  RH  060%=      5-min Rain = 0
KSW1 141916Z 16007KT 08/01 A303 RMK A01 T00780008  RH  061%=      5-min Rain = 0
KSW1 141917Z 14009KT 08/00 A303 RMK A01 T00810001  RH  057%=      5-min Rain = 0
KSW1 141918Z 15010KT 08/00 A303 RMK A01 T008200-0  RH  056%=      5-min Rain = 0
KSW1 141919Z 14010KT 08/M01 A303 RMK A01 T00821006  RH  054%=      5-min Rain = 0
KSW1 141920Z 17007KT 08/M00 A303 RMK A01 T00801001  RH  057%=      5-min Rain = 0
KSW1 141921Z 16008KT 08/M00 A303 RMK A01 T00801002  RH  056%=      5-min Rain = 0
KSW1 141922Z 17009KT 08/M00 A303 RMK A01 T00791003  RH  056%=      5-min Rain = 0
KSW1 141923Z 17007G12KT 08/M00 A303 RMK A01 T00781001  RH  057%=      5-min Rain = 0
KSW1 141924Z 17011KT 08/M00 A303 RMK A01 T00791001  RH  057%=      5-min Rain = 0
KSW1 141925Z 17010KT 08/M01 A303 RMK A01 T00791005  RH  055%=      5-min Rain = 0
KSW1 141926Z 17007KT 08/M00 A303 RMK A01 T00781001  RH  057%=      5-min Rain = 0
KSW1 141927Z 17008KT 08/00 A3029 RMK A01 T00790001  RH  058%=      5-min Rain = 0
KSW1 141928Z 16012KT 08/M00 A3029 RMK A01 T00801004  RH  055%=      5-min Rain = 0
KSW1 141929Z 17010KT 08/M01 A3029 RMK A01 T00781009  RH  054%=      5-min Rain = 0
KSW1 141930Z 18008KT 08/M01 A3029 RMK A01 T00761005  RH  056%=      5-min Rain = 0
KSW1 141931Z 18007KT 08/M00 A3029 RMK A01 T00751003  RH  058%=      5-min Rain = 0
KSW1 141932Z 16007G12KT 08/M00 A3029 RMK A01 T00751004  RH  057%=      5-min Rain = 0
KSW1 141933Z 16012KT 08/M00 A3029 RMK A01 T00781003  RH  056%=      5-min Rain = 0
KSW1 141934Z 16014KT 08/M01 A3029 RMK A01 T00811006  RH  054%=      5-min Rain = 0
KSW1 141935Z 16013KT 08/M00 A3029 RMK A01 T00821004  RH  055%=      5-min Rain = 0
KSW1 141936Z 16007KT 08/M01 A3029 RMK A01 T00811006  RH  054%=      5-min Rain = 0
KSW1 141937Z 16007KT 08/M01 A3029 RMK A01 T00801005  RH  055%=      5-min Rain = 0
KSW1 141938Z 16011KT 08/M01 A3029 RMK A01 T00811005  RH  054%=      5-min Rain = 0
KSW1 141939Z 16011KT 08/M00 A3029 RMK A01 T00821004  RH  055%=      5-min Rain = 0
KSW1 141940Z 16010KT 08/M01 A3029 RMK A01 T00821006  RH  054%=      5-min Rain = 0
KSW1 141941Z 18009KT 08/M01 A3029 RMK A01 T00821005  RH  054%=      5-min Rain = 0
KSW1 141942Z 16007KT 08/M00 A3029 RMK A01 T00831001  RH  056%=      5-min Rain = 0
KSW1 141943Z 16009KT 09/00 A3029 RMK A01 T00860003  RH  056%=      5-min Rain = 0
KSW1 141944Z 16009KT 09/M00 A3028 RMK A01 T00891002  RH  053%=      5-min Rain = 0
KSW1 141945Z 16011KT 09/M01 A3028 RMK A01 T00881005  RH  052%=      5-min Rain = 0
KSW1 141946Z 13010KT 09/M00 A3028 RMK A01 T00851004  RH  054%=      5-min Rain = 0
KSW1 141947Z 15008KT 09/M00 A3028 RMK A01 T00851004  RH  054%=      5-min Rain = 0
KSW1 141948Z 17011G16KT 09/M00 A3028 RMK A01 T00851003  RH  054%=      5-min Rain = 0
KSW1 141949Z 17013KT 09/00 A3028 RMK A01 T00870000  RH  055%=      5-min Rain = 0
KSW1 141950Z 18012KT 09/00 A3028 RMK A01 T00860003  RH  056%=      5-min Rain = 0
KSW1 141951Z 18012KT 09/00 A3028 RMK A01 T00860003  RH  056%=      5-min Rain = 0
KSW1 141952Z 19011KT 08/00 A3028 RMK A01 T00840002  RH  056%=      5-min Rain = 0
KSW1 141953Z 19010KT 08/00 A3028 RMK A01 T00840002  RH  056%=      5-min Rain = 0
KSW1 141954Z 19009KT 08/00 A3028 RMK A01 T008300-0  RH  056%=      5-min Rain = 0
KSW1 141955Z 17011KT 08/01 A3028 RMK A01 T00840006  RH  058%=      5-min Rain = 0
KSW1 141956Z 19008KT 09/01 A3028 RMK A01 T00870005  RH  057%=      5-min Rain = 0
KSW1 141957Z 19008KT 09/01 A3028 RMK A01 T00870007  RH  057%=      5-min Rain = 0
KSW1 141958Z 16009KT 09/01 A3028 RMK A01 T00880009  RH  058%=      5-min Rain = 0
KSW1 141959Z 17011KT 09/00 A3027 RMK A01 T00890003  RH  055%=      5-min Rain = 0
KSW1 142000Z 15009KT 09/M00 A3027 RMK A01 T00881003  RH  052%=      5-min Rain = 0
KSW1 142001Z 16008KT 09/M00 A3027 RMK A01 T00871003  RH  053%=      5-min Rain = 0
KSW1 142002Z 16012KT 09/00 A3027 RMK A01 T008800-0  RH  054%=      5-min Rain = 0
KSW1 142003Z 16010G15KT 09/M00 A3027 RMK A01 T00891004  RH  052%=      5-min Rain = 0
KSW1 142004Z 17007KT 09/00 A3027 RMK A01 T00890002  RH  054%=      5-min Rain = 0
KSW1 142005Z 17010KT 09/01 A3027 RMK A01 T00920013  RH  058%=      5-min Rain = 0
KSW1 142006Z 17010KT 09/01 A3027 RMK A01 T00940008  RH  055%=      5-min Rain = 0
KSW1 142007Z 18009KT 10/01 A3027 RMK A01 T00950008  RH  055%=      5-min Rain = 0
KSW1 142008Z 19008KT 09/01 A3027 RMK A01 T00930006  RH  054%=      5-min Rain = 0
KSW1 142009Z 18007KT 09/01 A3027 RMK A01 T00910008  RH  056%=      5-min Rain = 0
KSW1 142010Z 17012KT 09/01 A3027 RMK A01 T00910006  RH  055%=      5-min Rain = 0
KSW1 142011Z 16012KT 09/01 A3027 RMK A01 T00920005  RH  054%=      5-min Rain = 0
KSW1 142012Z 15012KT 09/00 A3027 RMK A01 T00920003  RH  053%=      5-min Rain = 0
KSW1 142013Z 17008KT 09/01 A3027 RMK A01 T00930008  RH  055%=      5-min Rain = 0
KSW1 142014Z 18011KT 09/01 A3027 RMK A01 T00940011  RH  056%=      5-min Rain = 0
KSW1 142015Z 17014KT 09/01 A3027 RMK A01 T00940011  RH  056%=      5-min Rain = 0
KSW1 142016Z 17011KT 09/01 A3027 RMK A01 T00940007  RH  055%=      5-min Rain = 0
KSW1 142017Z 18009KT 09/01 A3027 RMK A01 T00930010  RH  056%=      5-min Rain = 0
KSW1 142018Z 18008KT 09/01 A3027 RMK A01 T00920008  RH  056%=      5-min Rain = 0
KSW1 142019Z 17011KT 09/01 A3026 RMK A01 T00920013  RH  058%=      5-min Rain = 0
KSW1 142020Z 18011KT 09/01 A3026 RMK A01 T00940009  RH  055%=      5-min Rain = 0
KSW1 142021Z 17008KT 09/01 A3026 RMK A01 T00920005  RH  055%=      5-min Rain = 0
KSW1 142022Z 17010KT 09/01 A3026 RMK A01 T00910006  RH  055%=      5-min Rain = 0
KSW1 142023Z 18008KT 09/00 A3026 RMK A01 T00920003  RH  054%=      5-min Rain = 0
KSW1 142024Z 18009KT 09/01 A3026 RMK A01 T00910007  RH  056%=      5-min Rain = 0
KSW1 142025Z 19010KT 09/01 A3026 RMK A01 T00930014  RH  058%=      5-min Rain = 0
KSW1 142026Z 17013KT 10/01 A3026 RMK A01 T00960012  RH  056%=      5-min Rain = 0
KSW1 142027Z 16011KT 10/01 A3026 RMK A01 T00960010  RH  055%=      5-min Rain = 0
KSW1 142028Z 15008G14KT 10/01 A3026 RMK A01 T00960009  RH  054%=      5-min Rain = 0
KSW1 142029Z 16011KT 10/01 A3026 RMK A01 T00990011  RH  054%=      5-min Rain = 0
KSW1 142030Z 16012KT 10/01 A3026 RMK A01 T01000007  RH  052%=      5-min Rain = 0
KSW1 142031Z 16011KT 10/00 A3026 RMK A01 T00990004  RH  052%=      5-min Rain = 0
KSW1 142032Z 19010KT 10/01 A3026 RMK A01 T00970011  RH  055%=      5-min Rain = 0
KSW1 142033Z 19011KT 10/01 A3026 RMK A01 T00970013  RH  056%=      5-min Rain = 0
KSW1 142034Z 18008KT 10/01 A3026 RMK A01 T00960009  RH  055%=      5-min Rain = 0
KSW1 142035Z 18008KT 10/01 A3026 RMK A01 T00950009  RH  055%=      5-min Rain = 0
KSW1 142036Z 16012KT 09/01 A3026 RMK A01 T00940007  RH  054%=      5-min Rain = 0
KSW1 142037Z 17010KT 10/01 A3026 RMK A01 T00950005  RH  054%=      5-min Rain = 0
KSW1 142038Z 17009KT 09/00 A3025 RMK A01 T00930003  RH  054%=      5-min Rain = 0
KSW1 142039Z 17011KT 09/01 A3025 RMK A01 T00930007  RH  055%=      5-min Rain = 0
KSW1 142040Z 15009G14KT 10/01 A3025 RMK A01 T00950007  RH  054%=      5-min Rain = 0
KSW1 142041Z 15011KT 10/01 A3025 RMK A01 T00970006  RH  053%=      5-min Rain = 0
KSW1 142042Z 17012KT 10/01 A3025 RMK A01 T01000011  RH  054%=      5-min Rain = 0
KSW1 142043Z 18012KT 10/01 A3025 RMK A01 T01010011  RH  054%=      5-min Rain = 0
KSW1 142044Z 17011KT 10/01 A3025 RMK A01 T00980008  RH  053%=      5-min Rain = 0
KSW1 142045Z 16009KT 10/01 A3025 RMK A01 T00970006  RH  053%=      5-min Rain = 0
KSW1 142046Z 17009KT 10/01 A3025 RMK A01 T00970009  RH  054%=      5-min Rain = 0
KSW1 142047Z 17009KT 10/01 A3025 RMK A01 T00970007  RH  053%=      5-min Rain = 0
KSW1 142048Z 17012KT 10/01 A3025 RMK A01 T00990013  RH  055%=      5-min Rain = 0
KSW1 142049Z 17011KT 10/01 A3025 RMK A01 T01010012  RH  054%=      5-min Rain = 0
KSW1 142050Z 16010KT 10/01 A3025 RMK A01 T01020011  RH  053%=      5-min Rain = 0
KSW1 142051Z 16009KT 10/01 A3025 RMK A01 T01010008  RH  052%=      5-min Rain = 0
KSW1 142052Z 16010KT 10/01 A3025 RMK A01 T01020009  RH  052%=      5-min Rain = 0
KSW1 142053Z 18011KT 10/01 A3025 RMK A01 T01030013  RH  053%=      5-min Rain = 0
KSW1 142054Z 18013KT 10/01 A3025 RMK A01 T01030013  RH  054%=      5-min Rain = 0
KSW1 142055Z 19011KT 10/01 A3025 RMK A01 T01010014  RH  055%=      5-min Rain = 0
KSW1 142056Z 19010KT 10/01 A3025 RMK A01 T01000012  RH  054%=      5-min Rain = 0
KSW1 142057Z 17010G15KT 10/01 A3025 RMK A01 T01000012  RH  054%=      5-min Rain = 0
KSW1 142058Z 18011KT 10/01 A3024 RMK A01 T01000014  RH  055%=      5-min Rain = 0
KSW1 142059Z 18015KT 10/01 A3024 RMK A01 T01020014  RH  054%=      5-min Rain = 0
KSW1 142100Z 18015KT 10/01 A3024 RMK A01 T01000010  RH  054%=      5-min Rain = 0
KSW1 142101Z 19014KT 10/01 A3024 RMK A01 T00960005  RH  053%=      5-min Rain = 0
KSW1 142102Z 18010KT 10/01 A3024 RMK A01 T00950008  RH  055%=      5-min Rain = 0
KSW1 142103Z 18013KT 10/01 A3024 RMK A01 T00960012  RH  056%=      5-min Rain = 0
KSW1 142104Z 19013KT 10/01 A3024 RMK A01 T00980012  RH  055%=      5-min Rain = 0
KSW1 142105Z 19012KT 10/01 A3024 RMK A01 T00990013  RH  055%=      5-min Rain = 0
KSW1 142106Z 18012KT 10/01 A3024 RMK A01 T01000009  RH  053%=      5-min Rain = 0
KSW1 142107Z 20009KT 10/01 A3024 RMK A01 T00990013  RH  055%=      5-min Rain = 0
KSW1 142108Z 19012KT 10/01 A3024 RMK A01 T01000012  RH  054%=      5-min Rain = 0
KSW1 142109Z 18014KT 10/01 A3024 RMK A01 T01000011  RH  054%=      5-min Rain = 0
KSW1 142110Z 18010KT 10/01 A3024 RMK A01 T00990013  RH  055%=      5-min Rain = 0
KSW1 142111Z 18009KT 10/01 A3024 RMK A01 T00990011  RH  055%=      5-min Rain = 0
KSW1 142112Z 18010KT 10/01 A3024 RMK A01 T00990014  RH  056%=      5-min Rain = 0
KSW1 142113Z 16010KT 10/01 A3024 RMK A01 T01000014  RH  055%=      5-min Rain = 0
KSW1 142114Z 15010KT 10/01 A3024 RMK A01 T01020006  RH  052%=      5-min Rain = 0
KSW1 142115Z 16009KT 10/01 A3024 RMK A01 T01020006  RH  051%=      5-min Rain = 0
KSW1 142116Z 17013KT 10/01 A3024 RMK A01 T01020006  RH  051%=      5-min Rain = 0
KSW1 142117Z 17012KT 10/01 A3024 RMK A01 T01010006  RH  052%=      5-min Rain = 0
KSW1 142118Z 17010KT 10/01 A3024 RMK A01 T01010011  RH  053%=      5-min Rain = 0
KSW1 142119Z 17007KT 10/01 A3024 RMK A01 T01030013  RH  054%=      5-min Rain = 0
KSW1 142120Z 17010KT 11/01 A3024 RMK A01 T01050012  RH  052%=      5-min Rain = 0
KSW1 142121Z 18012KT 11/02 A3024 RMK A01 T01060015  RH  053%=      5-min Rain = 0
KSW1 142122Z 18011KT 11/02 A3024 RMK A01 T01070015  RH  053%=      5-min Rain = 0
KSW1 142123Z 18011KT 11/01 A3024 RMK A01 T01050010  RH  052%=      5-min Rain = 0
KSW1 142124Z 18008KT 10/01 A3024 RMK A01 T01020006  RH  051%=      5-min Rain = 0
KSW1 142125Z 17012KT 10/01 A3024 RMK A01 T01010012  RH  054%=      5-min Rain = 0
KSW1 142126Z 17013KT 10/01 A3024 RMK A01 T01030013  RH  054%=      5-min Rain = 0
KSW1 142127Z 16011KT 10/01 A3024 RMK A01 T01030007  RH  052%=      5-min Rain = 0
KSW1 142128Z 16009KT 10/01 A3024 RMK A01 T01020006  RH  051%=      5-min Rain = 0
KSW1 142129Z 16008KT 10/01 A3024 RMK A01 T01020005  RH  051%=      5-min Rain = 0
KSW1 142130Z 18010KT 10/01 A3024 RMK A01 T01040012  RH  053%=      5-min Rain = 0
KSW1 142131Z 19011KT 11/01 A3024 RMK A01 T01050009  RH  051%=      5-min Rain = 0
KSW1 142132Z 20009KT 10/02 A3024 RMK A01 T01040018  RH  055%=      5-min Rain = 0
KSW1 142133Z 19011KT 11/01 A3024 RMK A01 T01050014  RH  053%=      5-min Rain = 0
KSW1 142134Z 18011KT 10/01 A3024 RMK A01 T01040013  RH  053%=      5-min Rain = 0
KSW1 142135Z 18012KT 10/01 A3024 RMK A01 T01040011  RH  053%=      5-min Rain = 0
KSW1 142136Z 19012KT 10/01 A3024 RMK A01 T01040013  RH  053%=      5-min Rain = 0
KSW1 142137Z 20011KT 11/02 A3024 RMK A01 T01060016  RH  054%=      5-min Rain = 0
KSW1 142138Z 19010KT 11/01 A3024 RMK A01 T01060012  RH  052%=      5-min Rain = 0
KSW1 142139Z 18008KT 11/02 A3023 RMK A01 T01060016  RH  054%=      5-min Rain = 0
KSW1 142140Z 18010KT 11/02 A3023 RMK A01 T01060016  RH  053%=      5-min Rain = 0
KSW1 142141Z 16010KT 11/01 A3023 RMK A01 T01070012  RH  052%=      5-min Rain = 0
KSW1 142142Z 17012KT 11/01 A3023 RMK A01 T01070009  RH  051%=      5-min Rain = 0
KSW1 142143Z 17012KT 11/01 A3023 RMK A01 T01060011  RH  052%=      5-min Rain = 0
KSW1 142144Z 16011G16KT 11/02 A3023 RMK A01 T01080018  RH  054%=      5-min Rain = 0
KSW1 142145Z 15013KT 11/01 A3023 RMK A01 T01100011  RH  050%=      5-min Rain = 0
KSW1 142146Z 17011KT 11/01 A3023 RMK A01 T01110011  RH  050%=      5-min Rain = 0
KSW1 142147Z 18011KT 11/02 A3023 RMK A01 T01110016  RH  052%=      5-min Rain = 0
KSW1 142148Z 18011KT 11/02 A3023 RMK A01 T01100021  RH  054%=      5-min Rain = 0
KSW1 142149Z 18011KT 11/01 A3023 RMK A01 T01090010  RH  050%=      5-min Rain = 0
KSW1 142150Z 18013KT 11/01 A3023 RMK A01 T01050009  RH  051%=      5-min Rain = 0
KSW1 142151Z 18010KT 10/01 A3023 RMK A01 T01040012  RH  053%=      5-min Rain = 0
KSW1 142152Z 17012KT 10/01 A3023 RMK A01 T01040013  RH  053%=      5-min Rain = 0
KSW1 142153Z 16012KT 11/01 A3023 RMK A01 T01060010  RH  051%=      5-min Rain = 0
KSW1 142154Z 17010KT 11/01 A3023 RMK A01 T01070009  RH  051%=      5-min Rain = 0
KSW1 142155Z 18011KT 11/01 A3023 RMK A01 T01080013  RH  052%=      5-min Rain = 0
KSW1 142156Z 16009KT 11/01 A3023 RMK A01 T01080013  RH  052%=      5-min Rain = 0
KSW1 142157Z 17009KT 11/01 A3023 RMK A01 T01080008  RH  050%=      5-min Rain = 0
KSW1 142158Z 16008KT 11/01 A3023 RMK A01 T01070009  RH  051%=      5-min Rain = 0
KSW1 142159Z 18010KT 11/01 A3023 RMK A01 T01080012  RH  052%=      5-min Rain = 0
KSW1 142200Z 17012KT 11/02 A3023 RMK A01 T01100019  RH  054%=      5-min Rain = 0
KSW1 142201Z 17010KT 11/01 A3023 RMK A01 T01110010  RH  050%=      5-min Rain = 0
KSW1 142202Z 19011KT 11/01 A3023 RMK A01 T01090014  RH  052%=      5-min Rain = 0
KSW1 142203Z 20012KT 11/01 A3022 RMK A01 T01090014  RH  052%=      5-min Rain = 0
KSW1 142204Z 20010KT 11/01 A3022 RMK A01 T01090013  RH  052%=      5-min Rain = 0
KSW1 142205Z 19010KT 11/02 A3022 RMK A01 T01090018  RH  053%=      5-min Rain = 0
KSW1 142206Z 17010KT 11/02 A3023 RMK A01 T01100017  RH  053%=      5-min Rain = 0
KSW1 142207Z 16011KT 11/01 A3022 RMK A01 T01100010  RH  050%=      5-min Rain = 0
KSW1 142208Z 15011KT 11/01 A3022 RMK A01 T01090007  RH  049%=      5-min Rain = 0
KSW1 142209Z 17014KT 11/01 A3022 RMK A01 T01090010  RH  050%=      5-min Rain = 0
KSW1 142210Z 17013KT 11/01 A3022 RMK A01 T01090008  RH  050%=      5-min Rain = 0
KSW1 142211Z 17010KT 11/01 A3022 RMK A01 T01060005  RH  049%=      5-min Rain = 0
KSW1 142212Z 16013KT 11/01 A3022 RMK A01 T01050008  RH  051%=      5-min Rain = 0
KSW1 142213Z 16011KT 11/01 A3022 RMK A01 T01060008  RH  051%=      5-min Rain = 0
KSW1 142214Z 15010KT 11/01 A3022 RMK A01 T01070010  RH  051%=      5-min Rain = 0
KSW1 142215Z 16009KT 11/01 A3022 RMK A01 T01070006  RH  050%=      5-min Rain = 0
KSW1 142216Z 15008KT 11/01 A3022 RMK A01 T01070009  RH  051%=      5-min Rain = 0
KSW1 142217Z 15007KT 11/01 A3022 RMK A01 T01080009  RH  050%=      5-min Rain = 0
KSW1 142218Z 14007KT 11/01 A3022 RMK A01 T01080009  RH  051%=      5-min Rain = 0
KSW1 142219Z 14009KT 11/01 A3022 RMK A01 T01100010  RH  050%=      5-min Rain = 0
KSW1 142220Z 15013KT 11/01 A3022 RMK A01 T01120011  RH  050%=      5-min Rain = 0
KSW1 142221Z 16010KT 11/01 A3022 RMK A01 T01130012  RH  050%=      5-min Rain = 0
KSW1 142222Z 17013KT 11/01 A3022 RMK A01 T01140010  RH  049%=      5-min Rain = 0
KSW1 142223Z 17012KT 11/01 A3022 RMK A01 T01110011  RH  050%=      5-min Rain = 0
KSW1 142224Z 16009KT 11/01 A3022 RMK A01 T01100011  RH  051%=      5-min Rain = 0
KSW1 142225Z 15010G15KT 11/01 A3022 RMK A01 T01110010  RH  050%=      5-min Rain = 0
KSW1 142226Z 15010KT 11/01 A3022 RMK A01 T01130009  RH  049%=      5-min Rain = 0
KSW1 142227Z 16012KT 11/01 A3022 RMK A01 T01110006  RH  048%=      5-min Rain = 0
KSW1 142228Z 15012KT 11/01 A3022 RMK A01 T01100006  RH  049%=      5-min Rain = 0
KSW1 142229Z 14012KT 11/01 A3022 RMK A01 T01100009  RH  050%=      5-min Rain = 0
KSW1 142230Z 15014KT 11/01 A3022 RMK A01 T01110007  RH  049%=      5-min Rain = 0
KSW1 142231Z 15015KT 11/01 A3022 RMK A01 T01120007  RH  048%=      5-min Rain = 0
KSW1 142232Z 16013KT 11/01 A3022 RMK A01 T01110006  RH  048%=      5-min Rain = 0
KSW1 142233Z 16011KT 11/01 A3022 RMK A01 T01100006  RH  049%=      5-min Rain = 0
KSW1 142234Z 16010KT 11/01 A3022 RMK A01 T01080005  RH  049%=      5-min Rain = 0
KSW1 142235Z 16009KT 11/00 A3022 RMK A01 T01080004  RH  049%=      5-min Rain = 0
KSW1 142236Z 15010G17KT 11/01 A3022 RMK A01 T01080008  RH  050%=      5-min Rain = 0
KSW1 142237Z 15014KT 11/01 A3022 RMK A01 T01100005  RH  049%=      5-min Rain = 0
KSW1 142238Z 16012KT 11/01 A3022 RMK A01 T01090005  RH  049%=      5-min Rain = 0
KSW1 142239Z 15011KT 11/01 A3022 RMK A01 T01080005  RH  049%=      5-min Rain = 0
KSW1 142240Z 17012KT 11/01 A3022 RMK A01 T01080007  RH  050%=      5-min Rain = 0
KSW1 142241Z 18012KT 11/01 A3022 RMK A01 T01080007  RH  050%=      5-min Rain = 0
KSW1 142242Z 16010KT 11/01 A3022 RMK A01 T01070005  RH  049%=      5-min Rain = 0
KSW1 142243Z 16012KT 11/01 A3022 RMK A01 T01070005  RH  049%=      5-min Rain = 0
KSW1 142244Z 16010KT 11/00 A3022 RMK A01 T01070004  RH  049%=      5-min Rain = 0
KSW1 142245Z 15010KT 11/01 A3022 RMK A01 T01090007  RH  049%=      5-min Rain = 0
KSW1 142246Z 14014KT 11/01 A3022 RMK A01 T01120007  RH  048%=      5-min Rain = 0
KSW1 142247Z 14014KT 11/00 A3021 RMK A01 T01110004  RH  048%=      5-min Rain = 0
KSW1 142248Z 14015KT 11/00 A3022 RMK A01 T01090003  RH  048%=      5-min Rain = 0
KSW1 142249Z 14011KT 11/01 A3022 RMK A01 T01080005  RH  049%=      5-min Rain = 0
KSW1 142250Z 14011KT 11/01 A3022 RMK A01 T01080006  RH  049%=      5-min Rain = 0
KSW1 142251Z 14010KT 11/01 A3022 RMK A01 T01090005  RH  049%=      5-min Rain = 0
KSW1 142252Z 14011KT 11/00 A3022 RMK A01 T01090004  RH  048%=      5-min Rain = 0
KSW1 142253Z 15011KT 11/00 A3021 RMK A01 T01080002  RH  048%=      5-min Rain = 0
KSW1 142254Z 16014KT 11/00 A3021 RMK A01 T01080004  RH  049%=      5-min Rain = 0
KSW1 142255Z 14011KT 11/00 A3021 RMK A01 T01070004  RH  049%=      5-min Rain = 0
KSW1 142256Z 15014KT 11/00 A3021 RMK A01 T01080004  RH  049%=      5-min Rain = 0
KSW1 142257Z 15011G16KT 11/01 A3021 RMK A01 T01090005  RH  049%=      5-min Rain = 0
KSW1 142258Z 14013KT 11/00 A3021 RMK A01 T01090003  RH  048%=      5-min Rain = 0
KSW1 142259Z 16011KT 11/01 A3021 RMK A01 T01090005  RH  049%=      5-min Rain = 0
KSW1 142300Z 16013KT 11/01 A3021 RMK A01 T01090005  RH  048%=      5-min Rain = 0
KSW1 142301Z 16014KT 11/01 A3021 RMK A01 T01090006  RH  049%=      5-min Rain = 0
KSW1 142302Z 16012KT 11/01 A3021 RMK A01 T01090005  RH  049%=      5-min Rain = 0
KSW1 142303Z 17012KT 11/01 A3021 RMK A01 T01090007  RH  049%=      5-min Rain = 0
KSW1 142304Z 17014KT 11/01 A3021 RMK A01 T01090009  RH  050%=      5-min Rain = 0
KSW1 142305Z 17012KT 11/01 A3021 RMK A01 T01090008  RH  050%=      5-min Rain = 0
KSW1 142306Z 17011KT 11/01 A3021 RMK A01 T01080009  RH  050%=      5-min Rain = 0
KSW1 142307Z 15011KT 11/01 A3021 RMK A01 T01080010  RH  050%=      5-min Rain = 0
KSW1 142308Z 15011KT 11/01 A3021 RMK A01 T01090006  RH  049%=      5-min Rain = 0
KSW1 142309Z 15014KT 11/01 A3021 RMK A01 T01090006  RH  049%=      5-min Rain = 0
KSW1 142310Z 15014KT 11/00 A3021 RMK A01 T01080004  RH  048%=      5-min Rain = 0
KSW1 142311Z 16013KT 11/00 A3021 RMK A01 T01070004  RH  049%=      5-min Rain = 0
KSW1 142312Z 15009KT 11/01 A3021 RMK A01 T01070005  RH  049%=      5-min Rain = 0
KSW1 142313Z 17009KT 11/01 A3021 RMK A01 T01060006  RH  050%=      5-min Rain = 0
KSW1 142314Z 15012KT 11/01 A3021 RMK A01 T01070006  RH  050%=      5-min Rain = 0
KSW1 142315Z 15011KT 11/01 A3021 RMK A01 T01080005  RH  049%=      5-min Rain = 0
KSW1 142316Z 15011KT 11/01 A3021 RMK A01 T01080006  RH  049%=      5-min Rain = 0
KSW1 142317Z 15011KT 11/01 A3022 RMK A01 T01080007  RH  049%=      5-min Rain = 0
KSW1 142318Z 15011KT 11/01 A3021 RMK A01 T01080006  RH  049%=      5-min Rain = 0
KSW1 142319Z 15011KT 11/01 A3021 RMK A01 T01080006  RH  050%=      5-min Rain = 0
KSW1 142320Z 16013KT 11/01 A3022 RMK A01 T01070007  RH  050%=      5-min Rain = 0
KSW1 142321Z 16010KT 11/01 A3022 RMK A01 T01070005  RH  049%=      5-min Rain = 0
KSW1 142322Z 16009KT 11/01 A3021 RMK A01 T01060008  RH  050%=      5-min Rain = 0
KSW1 142323Z 15008KT 11/01 A3022 RMK A01 T01060006  RH  050%=      5-min Rain = 0
KSW1 142324Z 15008KT 11/01 A3021 RMK A01 T01070009  RH  051%=      5-min Rain = 0
KSW1 142325Z 14010KT 11/01 A3021 RMK A01 T01080008  RH  050%=      5-min Rain = 0
KSW1 142326Z 15010G17KT 11/01 A3021 RMK A01 T01080008  RH  050%=      5-min Rain = 0
KSW1 142327Z 16015KT 11/01 A3021 RMK A01 T01080007  RH  050%=      5-min Rain = 0
KSW1 142328Z 16015KT 11/01 A3021 RMK A01 T01070005  RH  049%=      5-min Rain = 0
KSW1 142329Z 15014KT 11/01 A3021 RMK A01 T01060006  RH  050%=      5-min Rain = 0
KSW1 142330Z 15012KT 11/01 A3021 RMK A01 T01060005  RH  050%=      5-min Rain = 0
KSW1 142331Z 16011KT 11/01 A3021 RMK A01 T01050005  RH  050%=      5-min Rain = 0
KSW1 142332Z 15011KT 11/01 A3021 RMK A01 T01050008  RH  051%=      5-min Rain = 0
KSW1 142333Z 15013KT 11/01 A3021 RMK A01 T01050007  RH  051%=      5-min Rain = 0
KSW1 142334Z 16011KT 11/01 A3021 RMK A01 T01050007  RH  051%=      5-min Rain = 0
KSW1 142335Z 16011KT 11/01 A3021 RMK A01 T01050008  RH  051%=      5-min Rain = 0
KSW1 142336Z 16012KT 11/01 A3021 RMK A01 T01050007  RH  051%=      5-min Rain = 0
KSW1 142337Z 16012KT 10/01 A3021 RMK A01 T01040008  RH  051%=      5-min Rain = 0
KSW1 142338Z 14010KT 10/01 A3021 RMK A01 T01030007  RH  051%=      5-min Rain = 0
KSW1 142339Z 14009KT 10/01 A3021 RMK A01 T01030007  RH  051%=      5-min Rain = 0
KSW1 142340Z 13009KT 10/01 A3021 RMK A01 T01030009  RH  052%=      5-min Rain = 0
KSW1 142341Z 14011KT 10/01 A3021 RMK A01 T01030008  RH  052%=      5-min Rain = 0
KSW1 142342Z 14011KT 10/01 A3021 RMK A01 T01020008  RH  052%=      5-min Rain = 0
KSW1 142343Z 14011KT 10/01 A3021 RMK A01 T01020007  RH  052%=      5-min Rain = 0
KSW1 142344Z 14008KT 10/01 A3021 RMK A01 T01020008  RH  052%=      5-min Rain = 0
KSW1 142345Z 15012KT 10/01 A3021 RMK A01 T01010008  RH  052%=      5-min Rain = 0
KSW1 142346Z 14009KT 10/01 A3021 RMK A01 T01010007  RH  052%=      5-min Rain = 0
KSW1 142347Z 14009KT 10/01 A3021 RMK A01 T01010009  RH  053%=      5-min Rain = 0
KSW1 142348Z 15010G15KT 10/01 A3021 RMK A01 T01000007  RH  053%=      5-min Rain = 0
KSW1 142349Z 15010KT 10/01 A3021 RMK A01 T01000007  RH  052%=      5-min Rain = 0
KSW1 142350Z 15009KT 10/01 A3021 RMK A01 T01000007  RH  053%=      5-min Rain = 0
KSW1 142351Z 15008KT 10/01 A3021 RMK A01 T00990008  RH  053%=      5-min Rain = 0
KSW1 142352Z 14008KT 10/01 A3021 RMK A01 T00990008  RH  053%=      5-min Rain = 0
KSW1 142353Z 15011KT 10/01 A3021 RMK A01 T00990007  RH  053%=      5-min Rain = 0
KSW1 142354Z 14008KT 10/01 A3021 RMK A01 T00990008  RH  053%=      5-min Rain = 0
KSW1 142355Z 13009KT 10/01 A3021 RMK A01 T00980008  RH  053%=      5-min Rain = 0
KSW1 142356Z 13010KT 10/01 A3021 RMK A01 T00980007  RH  053%=      5-min Rain = 0
KSW1 142357Z 14007KT 10/01 A3021 RMK A01 T00970006  RH  053%=      5-min Rain = 0
KSW1 142358Z 13009KT 10/01 A3021 RMK A01 T00970009  RH  054%=      5-min Rain = 0
KSW1 142359Z 14009KT 10/01 A3021 RMK A01 T00960007  RH  054%=      5-min Rain = 0
KSW1 150000Z 14011KT 10/01 A3021 RMK A01 T00960007  RH  054%=      5-min Rain = 0
KSW1 150001Z 14010KT 10/01 A3021 RMK A01 T00960007  RH  054%=      5-min Rain = 0
KSW1 150002Z 14009KT 10/01 A3021 RMK A01 T00960007  RH  054%=      5-min Rain = 0
KSW1 150003Z 13010KT 10/01 A3021 RMK A01 T00950007  RH  054%=      5-min Rain = 0
KSW1 150004Z 13011KT 10/01 A3021 RMK A01 T00950008  RH  054%=      5-min Rain = 0
KSW1 150005Z 13008KT 09/01 A3021 RMK A01 T00940008  RH  055%=      5-min Rain = 0
KSW1 150006Z 13008KT 09/01 A3021 RMK A01 T00940009  RH  055%=      5-min Rain = 0
KSW1 150007Z 13007KT 09/01 A3021 RMK A01 T00930009  RH  056%=      5-min Rain = 0
KSW1 150008Z 13008KT 09/01 A3021 RMK A01 T00920010  RH  056%=      5-min Rain = 0
KSW1 150009Z 13007KT 09/01 A3021 RMK A01 T00910010  RH  057%=      5-min Rain = 0
KSW1 150010Z 13007KT 09/01 A3021 RMK A01 T00900009  RH  057%=      5-min Rain = 0
KSW1 150011Z 13007KT 09/01 A3021 RMK A01 T00900010  RH  057%=      5-min Rain = 0
KSW1 150012Z 13007KT 09/01 A3021 RMK A01 T00890009  RH  057%=      5-min Rain = 0
KSW1 150013Z 13006KT 09/01 A3021 RMK A01 T00890010  RH  058%=      5-min Rain = 0
KSW1 150014Z 13006KT 09/01 A3021 RMK A01 T00880010  RH  058%=      5-min Rain = 0
KSW1 150015Z 13006KT 09/01 A3021 RMK A01 T00870010  RH  058%=      5-min Rain = 0
KSW1 150016Z 13006KT 09/01 A3021 RMK A01 T00860010  RH  059%=      5-min Rain = 0
KSW1 150017Z 12006KT 09/01 A302 RMK A01 T00860010  RH  059%=      5-min Rain = 0
KSW1 150018Z 13007KT 09/01 A302 RMK A01 T00850010  RH  059%=      5-min Rain = 0
KSW1 150019Z 12007KT 09/01 A302 RMK A01 T00850011  RH  059%=      5-min Rain = 0
KSW1 150020Z 13006KT 08/01 A302 RMK A01 T00840010  RH  060%=      5-min Rain = 0
KSW1 150021Z 13006KT 08/01 A302 RMK A01 T00840010  RH  060%=      5-min Rain = 0
KSW1 150022Z 12006KT 08/01 A302 RMK A01 T00830010  RH  060%=      5-min Rain = 0
KSW1 150023Z 12007KT 08/01 A302 RMK A01 T00830010  RH  060%=      5-min Rain = 0
KSW1 150024Z 13006KT 08/01 A302 RMK A01 T00820011  RH  061%=      5-min Rain = 0
KSW1 150025Z 13006KT 08/01 A302 RMK A01 T00810010  RH  061%=      5-min Rain = 0
KSW1 150026Z 13006KT 08/01 A302 RMK A01 T00810010  RH  061%=      5-min Rain = 0
KSW1 150027Z 13006KT 08/01 A302 RMK A01 T00800010  RH  061%=      5-min Rain = 0
KSW1 150028Z 13007KT 08/01 A302 RMK A01 T00790011  RH  062%=      5-min Rain = 0
KSW1 150029Z 12007KT 08/01 A302 RMK A01 T00780010  RH  062%=      5-min Rain = 0
KSW1 150030Z 12007KT 08/01 A302 RMK A01 T00770011  RH  063%=      5-min Rain = 0
KSW1 150031Z 12007KT 08/01 A302 RMK A01 T00770011  RH  063%=      5-min Rain = 0
KSW1 150032Z 12007KT 08/01 A302 RMK A01 T00760011  RH  063%=      5-min Rain = 0
KSW1 150033Z 12007KT 08/01 A302 RMK A01 T00750010  RH  064%=      5-min Rain = 0
KSW1 150034Z 13007KT 07/01 A302 RMK A01 T00740010  RH  064%=      5-min Rain = 0
KSW1 150035Z 13007KT 07/01 A302 RMK A01 T00740010  RH  064%=      5-min Rain = 0
KSW1 150036Z 13007KT 07/01 A302 RMK A01 T00730010  RH  064%=      5-min Rain = 0
KSW1 150037Z 13007KT 07/01 A302 RMK A01 T00720010  RH  064%=      5-min Rain = 0
KSW1 150038Z 13007KT 07/01 A302 RMK A01 T00720010  RH  065%=      5-min Rain = 0
KSW1 150039Z 12008KT 07/01 A302 RMK A01 T00720010  RH  065%=      5-min Rain = 0
KSW1 150040Z 13007KT 07/01 A302 RMK A01 T00720010  RH  065%=      5-min Rain = 0
KSW1 150041Z 12007KT 07/01 A302 RMK A01 T00710010  RH  065%=      5-min Rain = 0
KSW1 150042Z 12007KT 07/01 A302 RMK A01 T00700010  RH  066%=      5-min Rain = 0
KSW1 150043Z 13007KT 07/01 A302 RMK A01 T00690010  RH  066%=      5-min Rain = 0
KSW1 150044Z 13007KT 07/01 A302 RMK A01 T00680009  RH  066%=      5-min Rain = 0
KSW1 150045Z 13007KT 07/01 A302 RMK A01 T00680010  RH  066%=      5-min Rain = 0
KSW1 150046Z 13007KT 07/01 A302 RMK A01 T00680010  RH  066%=      5-min Rain = 0
KSW1 150047Z 13007KT 07/01 A302 RMK A01 T00680009  RH  066%=      5-min Rain = 0
KSW1 150048Z 13008KT 07/01 A302 RMK A01 T00670009  RH  067%=      5-min Rain = 0
KSW1 150049Z 13008KT 07/01 A302 RMK A01 T00660009  RH  067%=      5-min Rain = 0
KSW1 150050Z 13007KT 07/01 A302 RMK A01 T00660009  RH  067%=      5-min Rain = 0
KSW1 150051Z 13007KT 07/01 A302 RMK A01 T00650009  RH  067%=      5-min Rain = 0
KSW1 150052Z 12007KT 06/01 A302 RMK A01 T00640009  RH  068%=      5-min Rain = 0
KSW1 150053Z 12007KT 06/01 A302 RMK A01 T00640009  RH  068%=      5-min Rain = 0
KSW1 150054Z 12007KT 06/01 A302 RMK A01 T00630008  RH  068%=      5-min Rain = 0
KSW1 150055Z 12007KT 06/01 A302 RMK A01 T00630008  RH  068%=      5-min Rain = 0
KSW1 150056Z 12007KT 06/01 A302 RMK A01 T00620008  RH  068%=      5-min Rain = 0
KSW1 150057Z 12007KT 06/01 A302 RMK A01 T00620008  RH  068%=      5-min Rain = 0
KSW1 150058Z 12007KT 06/01 A302 RMK A01 T00610008  RH  068%=      5-min Rain = 0
KSW1 150059Z 12007KT 06/01 A302 RMK A01 T00610007  RH  068%=      5-min Rain = 0
KSW1 150100Z 12007KT 06/01 A302 RMK A01 T00610007  RH  068%=      5-min Rain = 0
KSW1 150101Z 12007KT 06/01 A302 RMK A01 T00600007  RH  069%=      5-min Rain = 0
KSW1 150102Z 12007KT 06/01 A302 RMK A01 T00600007  RH  069%=      5-min Rain = 0
KSW1 150103Z 12007KT 06/01 A302 RMK A01 T00600007  RH  069%=      5-min Rain = 0
KSW1 150104Z 12007KT 06/01 A302 RMK A01 T00590006  RH  069%=      5-min Rain = 0
KSW1 150105Z 12008KT 06/01 A302 RMK A01 T00590007  RH  069%=      5-min Rain = 0
KSW1 150106Z 12008KT 06/01 A302 RMK A01 T00590007  RH  069%=      5-min Rain = 0
KSW1 150107Z 12008KT 06/01 A302 RMK A01 T00590006  RH  069%=      5-min Rain = 0
KSW1 150108Z 12008KT 06/01 A302 RMK A01 T00590007  RH  069%=      5-min Rain = 0
KSW1 150109Z 12007KT 06/01 A302 RMK A01 T00580006  RH  069%=      5-min Rain = 0
KSW1 150110Z 12007KT 06/01 A302 RMK A01 T00580006  RH  069%=      5-min Rain = 0
KSW1 150111Z 12007KT 06/01 A302 RMK A01 T00580007  RH  069%=      5-min Rain = 0
KSW1 150112Z 12008KT 06/01 A302 RMK A01 T00580006  RH  069%=      5-min Rain = 0
KSW1 150113Z 12007KT 06/01 A302 RMK A01 T00570006  RH  069%=      5-min Rain = 0
KSW1 150114Z 12008KT 06/01 A302 RMK A01 T00570006  RH  069%=      5-min Rain = 0
KSW1 150115Z 12008KT 06/01 A302 RMK A01 T00570006  RH  070%=      5-min Rain = 0
KSW1 150116Z 13007KT 06/01 A302 RMK A01 T00570006  RH  070%=      5-min Rain = 0
KSW1 150117Z 13007KT 06/01 A302 RMK A01 T00560006  RH  070%=      5-min Rain = 0
KSW1 150118Z 13007KT 06/01 A302 RMK A01 T00560005  RH  070%=      5-min Rain = 0
KSW1 150119Z 13007KT 06/01 A302 RMK A01 T00560005  RH  070%=      5-min Rain = 0
KSW1 150120Z 13007KT 06/01 A302 RMK A01 T00560006  RH  070%=      5-min Rain = 0
KSW1 150121Z 13007KT 06/01 A302 RMK A01 T00550005  RH  070%=      5-min Rain = 0
KSW1 150122Z 13007KT 06/01 A302 RMK A01 T00550005  RH  070%=      5-min Rain = 0
KSW1 150123Z 13007KT 06/01 A302 RMK A01 T00550005  RH  070%=      5-min Rain = 0
KSW1 150124Z 13008KT 06/01 A302 RMK A01 T00550005  RH  070%=      5-min Rain = 0
KSW1 150125Z 13008KT 05/01 A302 RMK A01 T00540005  RH  071%=      5-min Rain = 0
KSW1 150126Z 13007KT 05/01 A302 RMK A01 T00540005  RH  071%=      5-min Rain = 0
KSW1 150127Z 13007KT 05/01 A302 RMK A01 T00540005  RH  071%=      5-min Rain = 0
KSW1 150128Z 13007KT 05/01 A302 RMK A01 T00530005  RH  071%=      5-min Rain = 0
KSW1 150129Z 13007KT 05/01 A302 RMK A01 T00530005  RH  071%=      5-min Rain = 0
KSW1 150130Z 13007KT 05/00 A302 RMK A01 T00530004  RH  071%=      5-min Rain = 0
KSW1 150131Z 13007KT 05/00 A302 RMK A01 T00520004  RH  071%=      5-min Rain = 0
KSW1 150132Z 13007KT 05/00 A302 RMK A01 T00510004  RH  072%=      5-min Rain = 0
KSW1 150133Z 13008KT 05/00 A302 RMK A01 T00510004  RH  072%=      5-min Rain = 0
KSW1 150134Z 13008KT 05/00 A302 RMK A01 T00510004  RH  072%=      5-min Rain = 0
KSW1 150135Z 13008KT 05/00 A302 RMK A01 T00500004  RH  072%=      5-min Rain = 0
KSW1 150136Z 13008KT 05/00 A302 RMK A01 T00500004  RH  072%=      5-min Rain = 0
KSW1 150137Z 12008KT 05/00 A302 RMK A01 T00500004  RH  072%=      5-min Rain = 0
KSW1 150138Z 12008KT 05/00 A302 RMK A01 T00500004  RH  072%=      5-min Rain = 0
KSW1 150139Z 12008KT 05/00 A302 RMK A01 T00500004  RH  072%=      5-min Rain = 0
KSW1 150140Z 12008KT 05/01 A302 RMK A01 T00500005  RH  072%=      5-min Rain = 0
KSW1 150141Z 13008KT 05/00 A302 RMK A01 T00500004  RH  072%=      5-min Rain = 0
KSW1 150142Z 13008KT 05/01 A302 RMK A01 T00510005  RH  072%=      5-min Rain = 0
KSW1 150143Z 13008KT 05/01 A302 RMK A01 T00510005  RH  072%=      5-min Rain = 0
KSW1 150144Z 13008KT 05/00 A302 RMK A01 T00520004  RH  071%=      5-min Rain = 0
KSW1 150145Z 13008KT 05/00 A302 RMK A01 T00520004  RH  071%=      5-min Rain = 0
KSW1 150146Z 13008KT 05/01 A302 RMK A01 T00520005  RH  072%=      5-min Rain = 0
KSW1 150147Z 13007KT 05/00 A302 RMK A01 T00510004  RH  071%=      5-min Rain = 0
KSW1 150148Z 13008KT 05/00 A302 RMK A01 T00520004  RH  071%=      5-min Rain = 0
KSW1 150149Z 13008KT 05/00 A302 RMK A01 T00520004  RH  071%=      5-min Rain = 0
KSW1 150150Z 13008KT 05/00 A302 RMK A01 T00510004  RH  072%=      5-min Rain = 0
KSW1 150151Z 13008KT 05/00 A302 RMK A01 T00500004  RH  072%=      5-min Rain = 0
KSW1 150152Z 13008KT 05/00 A302 RMK A01 T00490004  RH  072%=      5-min Rain = 0
KSW1 150153Z 13008KT 05/00 A302 RMK A01 T00490004  RH  072%=      5-min Rain = 0
KSW1 150154Z 13008KT 05/00 A302 RMK A01 T00490004  RH  073%=      5-min Rain = 0
KSW1 150155Z 13008KT 05/00 A302 RMK A01 T00490004  RH  073%=      5-min Rain = 0
KSW1 150156Z 13008KT 05/00 A302 RMK A01 T00490004  RH  072%=      5-min Rain = 0
KSW1 150157Z 13008KT 05/00 A302 RMK A01 T00500004  RH  072%=      5-min Rain = 0
KSW1 150158Z 13008KT 05/00 A302 RMK A01 T00500004  RH  072%=      5-min Rain = 0
KSW1 150159Z 14008KT 05/01 A3021 RMK A01 T00500005  RH  072%=      5-min Rain = 0
KSW1 150200Z 13007KT 05/00 A3021 RMK A01 T00500004  RH  072%=      5-min Rain = 0
KSW1 150201Z 13007KT 05/00 A3021 RMK A01 T00510004  RH  072%=      5-min Rain = 0
KSW1 150202Z 13008KT 05/01 A3021 RMK A01 T00510005  RH  072%=      5-min Rain = 0
KSW1 150203Z 13008KT 05/01 A3021 RMK A01 T00510005  RH  072%=      5-min Rain = 0
KSW1 150204Z 13008KT 05/01 A3021 RMK A01 T00510005  RH  072%=      5-min Rain = 0
KSW1 150205Z 13008KT 05/01 A3021 RMK A01 T00500005  RH  073%=      5-min Rain = 0
KSW1 150206Z 13009KT 05/01 A3021 RMK A01 T00500005  RH  073%=      5-min Rain = 0
KSW1 150207Z 13008KT 05/01 A3021 RMK A01 T00510006  RH  073%=      5-min Rain = 0
KSW1 150208Z 13009KT 05/01 A3021 RMK A01 T00510006  RH  072%=      5-min Rain = 0
KSW1 150209Z 13008KT 05/01 A3021 RMK A01 T00520006  RH  072%=      5-min Rain = 0
KSW1 150210Z 13009KT 05/01 A3021 RMK A01 T00520006  RH  072%=      5-min Rain = 0
KSW1 150211Z 13009KT 05/01 A3021 RMK A01 T00530007  RH  072%=      5-min Rain = 0
KSW1 150212Z 13008KT 05/01 A3021 RMK A01 T00540006  RH  072%=      5-min Rain = 0
KSW1 150213Z 13009KT 05/01 A3021 RMK A01 T00540006  RH  071%=      5-min Rain = 0
KSW1 150214Z 13009KT 05/01 A3021 RMK A01 T00540007  RH  071%=      5-min Rain = 0
KSW1 150215Z 13009KT 05/01 A3021 RMK A01 T00540007  RH  071%=      5-min Rain = 0
KSW1 150216Z 13009KT 06/01 A3021 RMK A01 T00550007  RH  071%=      5-min Rain = 0
KSW1 150217Z 13009KT 06/01 A3021 RMK A01 T00550007  RH  071%=      5-min Rain = 0
KSW1 150218Z 13009KT 06/01 A3021 RMK A01 T00550007  RH  071%=      5-min Rain = 0
KSW1 150219Z 13009KT 06/01 A3021 RMK A01 T00550007  RH  071%=      5-min Rain = 0
KSW1 150220Z 14010KT 06/01 A3021 RMK A01 T00560007  RH  071%=      5-min Rain = 0
KSW1 150221Z 14009KT 06/01 A3021 RMK A01 T00560007  RH  071%=      5-min Rain = 0
KSW1 150222Z 14009KT 06/01 A3021 RMK A01 T00570007  RH  070%=      5-min Rain = 0
KSW1 150223Z 14009KT 06/01 A3021 RMK A01 T00580007  RH  070%=      5-min Rain = 0
KSW1 150224Z 14010KT 06/01 A3021 RMK A01 T00590008  RH  070%=      5-min Rain = 0
KSW1 150225Z 15009KT 06/01 A3021 RMK A01 T00600007  RH  069%=      5-min Rain = 0
KSW1 150226Z 14009KT 06/01 A3021 RMK A01 T00600007  RH  069%=      5-min Rain = 0
KSW1 150227Z 14008KT 06/01 A3021 RMK A01 T00610008  RH  069%=      5-min Rain = 0
KSW1 150228Z 14010KT 06/01 A3021 RMK A01 T00610008  RH  069%=      5-min Rain = 0
KSW1 150229Z 15009KT 06/01 A3021 RMK A01 T00620008  RH  068%=      5-min Rain = 0
KSW1 150230Z 15009KT 06/01 A3021 RMK A01 T00630008  RH  068%=      5-min Rain = 0
KSW1 150231Z 15010KT 06/01 A3021 RMK A01 T00640008  RH  068%=      5-min Rain = 0
KSW1 150232Z 15010KT 07/01 A3021 RMK A01 T00650008  RH  067%=      5-min Rain = 0
KSW1 150233Z 15010KT 07/01 A3021 RMK A01 T00660008  RH  067%=      5-min Rain = 0
KSW1 150234Z 15009KT 07/01 A3021 RMK A01 T00660008  RH  067%=      5-min Rain = 0
KSW1 150235Z 15009KT 07/01 A3021 RMK A01 T00660008  RH  067%=      5-min Rain = 0
KSW1 150236Z 15010KT 07/01 A3021 RMK A01 T00660008  RH  067%=      5-min Rain = 0
KSW1 150237Z 15010KT 07/01 A3021 RMK A01 T00670008  RH  066%=      5-min Rain = 0
KSW1 150238Z 15010KT 07/01 A3021 RMK A01 T00690008  RH  065%=      5-min Rain = 0
KSW1 150239Z 15011KT 07/01 A3021 RMK A01 T00700008  RH  065%=      5-min Rain = 0
KSW1 150240Z 15012KT 07/01 A3021 RMK A01 T00710008  RH  064%=      5-min Rain = 0
KSW1 150241Z 15011KT 07/01 A3021 RMK A01 T00730008  RH  063%=      5-min Rain = 0
KSW1 150242Z 15012KT 07/01 A3021 RMK A01 T00740008  RH  063%=      5-min Rain = 0
KSW1 150243Z 15011KT 08/01 A3021 RMK A01 T00750008  RH  062%=      5-min Rain = 0
KSW1 150244Z 15012KT 08/01 A3021 RMK A01 T00750008  RH  063%=      5-min Rain = 0
KSW1 150245Z 15010KT 08/01 A3021 RMK A01 T00750008  RH  062%=      5-min Rain = 0
KSW1 150246Z 15010KT 08/01 A3021 RMK A01 T00750008  RH  062%=      5-min Rain = 0
KSW1 150247Z 15011KT 08/01 A3021 RMK A01 T00750008  RH  063%=      5-min Rain = 0
KSW1 150248Z 15011KT 08/01 A3021 RMK A01 T00750008  RH  062%=      5-min Rain = 0
KSW1 150249Z 15013G18KT 08/01 A3021 RMK A01 T00750008  RH  062%=      5-min Rain = 0
KSW1 150250Z 15011KT 08/01 A3021 RMK A01 T00760008  RH  062%=      5-min Rain = 0
KSW1 150251Z 15014KT 08/01 A3021 RMK A01 T00760008  RH  062%=      5-min Rain = 0
KSW1 150252Z 15013KT 08/01 A3021 RMK A01 T00760007  RH  062%=      5-min Rain = 0
KSW1 150253Z 15012KT 08/01 A3021 RMK A01 T00770008  RH  061%=      5-min Rain = 0
KSW1 150254Z 15014KT 08/01 A3021 RMK A01 T00770008  RH  062%=      5-min Rain = 0
KSW1 150255Z 15013KT 08/01 A3021 RMK A01 T00770008  RH  062%=      5-min Rain = 0
KSW1 150256Z 15014G20KT 08/01 A3021 RMK A01 T00770008  RH  061%=      5-min Rain = 0
KSW1 150257Z 15012KT 08/01 A3021 RMK A01 T00770007  RH  061%=      5-min Rain = 0
KSW1 150258Z 15012KT 08/01 A3021 RMK A01 T00770008  RH  062%=      5-min Rain = 0
KSW1 150259Z 15013KT 08/01 A3021 RMK A01 T00760007  RH  062%=      5-min Rain = 0
KSW1 150300Z 15013KT 08/01 A3021 RMK A01 T00760007  RH  061%=      5-min Rain = 0
KSW1 150301Z 15014KT 08/01 A3021 RMK A01 T00760007  RH  061%=      5-min Rain = 0
KSW1 150302Z 15013KT 08/01 A3021 RMK A01 T00760007  RH  062%=      5-min Rain = 0
KSW1 150303Z 15013KT 08/01 A3021 RMK A01 T00760007  RH  062%=      5-min Rain = 0
KSW1 150304Z 15012KT 08/01 A3021 RMK A01 T00760008  RH  062%=      5-min Rain = 0
KSW1 150305Z 15013KT 08/01 A3021 RMK A01 T00760008  RH  062%=      5-min Rain = 0
KSW1 150306Z 15015KT 08/01 A3021 RMK A01 T00750007  RH  062%=      5-min Rain = 0
KSW1 150307Z 15014KT 08/01 A3021 RMK A01 T00760007  RH  062%=      5-min Rain = 0
KSW1 150308Z 15016KT 08/01 A3021 RMK A01 T00760008  RH  062%=      5-min Rain = 0
KSW1 150309Z 15015KT 08/01 A302 RMK A01 T00760008  RH  062%=      5-min Rain = 0
KSW1 150310Z 15012G17KT 08/01 A3021 RMK A01 T00760008  RH  062%=      5-min Rain = 0
KSW1 150311Z 15013G18KT 08/01 A302 RMK A01 T00760008  RH  062%=      5-min Rain = 0
KSW1 150312Z 15013KT 08/01 A302 RMK A01 T00750008  RH  062%=      5-min Rain = 0
KSW1 150313Z 15016KT 08/01 A302 RMK A01 T00750008  RH  062%=      5-min Rain = 0
KSW1 150314Z 15016KT 08/01 A302 RMK A01 T00750008  RH  062%=      5-min Rain = 0
KSW1 150315Z 15015KT 08/01 A302 RMK A01 T00760008  RH  062%=      5-min Rain = 0
KSW1 150316Z 15016KT 08/01 A302 RMK A01 T00760008  RH  062%=      5-min Rain = 0
KSW1 150317Z 16016KT 08/01 A302 RMK A01 T00760008  RH  062%=      5-min Rain = 0
KSW1 150318Z 15015KT 08/01 A302 RMK A01 T00750008  RH  062%=      5-min Rain = 0
KSW1 150319Z 15016KT 08/01 A302 RMK A01 T00750008  RH  062%=      5-min Rain = 0
KSW1 150320Z 15016KT 08/01 A302 RMK A01 T00750008  RH  062%=      5-min Rain = 0
KSW1 150321Z 15015KT 08/01 A302 RMK A01 T00750008  RH  062%=      5-min Rain = 0
KSW1 150322Z 15014KT 08/01 A302 RMK A01 T00750008  RH  062%=      5-min Rain = 0
KSW1 150323Z 15015KT 08/01 A302 RMK A01 T00750008  RH  063%=      5-min Rain = 0
KSW1 150324Z 15013G18KT 07/01 A302 RMK A01 T00740008  RH  063%=      5-min Rain = 0
KSW1 150325Z 15013KT 07/01 A302 RMK A01 T00740008  RH  063%=      5-min Rain = 0
KSW1 150326Z 15016KT 07/01 A302 RMK A01 T00740008  RH  063%=      5-min Rain = 0
KSW1 150327Z 15015KT 07/01 A302 RMK A01 T00730008  RH  063%=      5-min Rain = 0
KSW1 150328Z 15016G21KT 07/01 A302 RMK A01 T00740008  RH  063%=      5-min Rain = 0
KSW1 150329Z 16016KT 07/01 A302 RMK A01 T00740008  RH  063%=      5-min Rain = 0
KSW1 150330Z 15017G24KT 07/01 A302 RMK A01 T00740008  RH  063%=      5-min Rain = 0
KSW1 150331Z 15015KT 07/01 A302 RMK A01 T00740007  RH  063%=      5-min Rain = 0
KSW1 150332Z 15012KT 07/01 A302 RMK A01 T00740008  RH  063%=      5-min Rain = 0
KSW1 150333Z 15015KT 07/01 A302 RMK A01 T00730008  RH  063%=      5-min Rain = 0
KSW1 150334Z 16016KT 07/01 A302 RMK A01 T00730008  RH  063%=      5-min Rain = 0
KSW1 150335Z 16016G22KT 07/01 A302 RMK A01 T00730008  RH  063%=      5-min Rain = 0
KSW1 150336Z 16016KT 07/01 A302 RMK A01 T00730008  RH  063%=      5-min Rain = 0
KSW1 150337Z 16014KT 07/01 A302 RMK A01 T00730007  RH  063%=      5-min Rain = 0
KSW1 150338Z 15018KT 07/01 A302 RMK A01 T00730008  RH  063%=      5-min Rain = 0
KSW1 150339Z 15014KT 07/01 A302 RMK A01 T00730008  RH  063%=      5-min Rain = 0
KSW1 150340Z 15013KT 07/01 A302 RMK A01 T00730008  RH  064%=      5-min Rain = 0
KSW1 150341Z 16013G19KT 07/01 A302 RMK A01 T00720008  RH  064%=      5-min Rain = 0
KSW1 150342Z 15015KT 07/01 A302 RMK A01 T00710008  RH  064%=      5-min Rain = 0
KSW1 150343Z 15017G23KT 07/01 A302 RMK A01 T00710008  RH  064%=      5-min Rain = 0
KSW1 150344Z 15015KT 07/01 A302 RMK A01 T00710007  RH  064%=      5-min Rain = 0
KSW1 150345Z 15015KT 07/01 A302 RMK A01 T00710007  RH  064%=      5-min Rain = 0
KSW1 150346Z 15014KT 07/01 A302 RMK A01 T00710007  RH  064%=      5-min Rain = 0
KSW1 150347Z 15015KT 07/01 A302 RMK A01 T00710007  RH  064%=      5-min Rain = 0
KSW1 150348Z 16015KT 07/01 A302 RMK A01 T00710008  RH  064%=      5-min Rain = 0
KSW1 150349Z 16014KT 07/01 A302 RMK A01 T00710008  RH  064%=      5-min Rain = 0
KSW1 150350Z 16013KT 07/01 A302 RMK A01 T00700008  RH  064%=      5-min Rain = 0
KSW1 150351Z 16013KT 07/01 A302 RMK A01 T00700008  RH  065%=      5-min Rain = 0
KSW1 150352Z 16013KT 07/01 A302 RMK A01 T00690008  RH  065%=      5-min Rain = 0
KSW1 150353Z 16013KT 07/01 A302 RMK A01 T00690008  RH  065%=      5-min Rain = 0
KSW1 150354Z 16013KT 07/01 A302 RMK A01 T00680008  RH  065%=      5-min Rain = 0
KSW1 150355Z 16012KT 07/01 A302 RMK A01 T00680008  RH  066%=      5-min Rain = 0
KSW1 150356Z 16014KT 07/01 A302 RMK A01 T00680008  RH  066%=      5-min Rain = 0
KSW1 150357Z 16013KT 07/01 A302 RMK A01 T00670008  RH  066%=      5-min Rain = 0
KSW1 150358Z 16014G19KT 07/01 A302 RMK A01 T00670008  RH  066%=      5-min Rain = 0
KSW1 150359Z 15016KT 07/01 A302 RMK A01 T00670007  RH  066%=      5-min Rain = 0
KSW1 150400Z 16013KT 07/01 A302 RMK A01 T00670007  RH  066%=      5-min Rain = 0
KSW1 150401Z 15012KT 07/01 A3019 RMK A01 T00680008  RH  066%=      5-min Rain = 0
KSW1 150402Z 16015KT 07/01 A3019 RMK A01 T00670008  RH  066%=      5-min Rain = 0
KSW1 150403Z 16016KT 07/01 A3019 RMK A01 T00670008  RH  066%=      5-min Rain = 0
KSW1 150404Z 16013KT 07/01 A302 RMK A01 T00680008  RH  066%=      5-min Rain = 0
KSW1 150405Z 15015KT 07/01 A302 RMK A01 T00670008  RH  066%=      5-min Rain = 0
KSW1 150406Z 15014KT 07/01 A302 RMK A01 T00670007  RH  066%=      5-min Rain = 0
KSW1 150407Z 16014KT 07/01 A302 RMK A01 T00670007  RH  066%=      5-min Rain = 0
KSW1 150408Z 16013KT 07/01 A302 RMK A01 T00670007  RH  066%=      5-min Rain = 0
KSW1 150409Z 16014KT 07/01 A302 RMK A01 T00670008  RH  066%=      5-min Rain = 0
KSW1 150410Z 16012KT 07/01 A302 RMK A01 T00660008  RH  066%=      5-min Rain = 0
KSW1 150411Z 16014KT 07/01 A302 RMK A01 T00660008  RH  066%=      5-min Rain = 0
KSW1 150412Z 16013KT 07/01 A302 RMK A01 T00660007  RH  066%=      5-min Rain = 0
KSW1 150413Z 16014KT 07/01 A302 RMK A01 T00660007  RH  066%=      5-min Rain = 0
KSW1 150414Z 15013KT 07/01 A302 RMK A01 T00660007  RH  066%=      5-min Rain = 0
KSW1 150415Z 16013KT 07/01 A302 RMK A01 T00650008  RH  066%=      5-min Rain = 0
KSW1 150416Z 16013KT 07/01 A302 RMK A01 T00650007  RH  067%=      5-min Rain = 0
KSW1 150417Z 16015KT 06/01 A302 RMK A01 T00640007  RH  067%=      5-min Rain = 0
KSW1 150418Z 15013KT 07/01 A302 RMK A01 T00650007  RH  067%=      5-min Rain = 0
KSW1 150419Z 15015KT 07/01 A302 RMK A01 T00650007  RH  066%=      5-min Rain = 0
KSW1 150420Z 16015KT 07/01 A302 RMK A01 T00650006  RH  066%=      5-min Rain = 0
KSW1 150421Z 16014KT 07/01 A302 RMK A01 T00650006  RH  066%=      5-min Rain = 0
KSW1 150422Z 16013KT 07/01 A3019 RMK A01 T00650007  RH  066%=      5-min Rain = 0
KSW1 150423Z 16015KT 07/01 A3019 RMK A01 T00650007  RH  066%=      5-min Rain = 0
KSW1 150424Z 16014KT 06/01 A3019 RMK A01 T00640006  RH  066%=      5-min Rain = 0
KSW1 150425Z 16015KT 06/01 A3019 RMK A01 T00640006  RH  066%=      5-min Rain = 0
KSW1 150426Z 16014KT 06/01 A3019 RMK A01 T00640006  RH  066%=      5-min Rain = 0
KSW1 150427Z 16014KT 06/01 A3019 RMK A01 T00640006  RH  066%=      5-min Rain = 0
KSW1 150428Z 16014KT 06/01 A3019 RMK A01 T00640006  RH  066%=      5-min Rain = 0
KSW1 150429Z 16013KT 06/01 A3019 RMK A01 T00640006  RH  066%=      5-min Rain = 0
KSW1 150430Z 16016KT 06/01 A3019 RMK A01 T00640006  RH  066%=      5-min Rain = 0
KSW1 150431Z 16015KT 06/01 A3019 RMK A01 T00640005  RH  066%=      5-min Rain = 0
KSW1 150432Z 16013KT 06/01 A3019 RMK A01 T00640005  RH  066%=      5-min Rain = 0
KSW1 150433Z 17013G19KT 06/01 A3019 RMK A01 T00640005  RH  066%=      5-min Rain = 0
KSW1 150434Z 16016G22KT 06/01 A3019 RMK A01 T00640005  RH  066%=      5-min Rain = 0
KSW1 150435Z 16016KT 06/01 A3019 RMK A01 T00640005  RH  066%=      5-min Rain = 0
KSW1 150436Z 16015G20KT 07/00 A3019 RMK A01 T00650004  RH  065%=      5-min Rain = 0
KSW1 150437Z 16016KT 07/00 A3019 RMK A01 T00650004  RH  065%=      5-min Rain = 0
KSW1 150438Z 16015KT 07/00 A3019 RMK A01 T00660004  RH  065%=      5-min Rain = 0
KSW1 150439Z 16016KT 07/00 A3019 RMK A01 T00660004  RH  065%=      5-min Rain = 0
KSW1 150440Z 16015KT 07/00 A3019 RMK A01 T00650004  RH  065%=      5-min Rain = 0
KSW1 150441Z 16014KT 07/00 A3019 RMK A01 T00650004  RH  065%=      5-min Rain = 0
KSW1 150442Z 16015KT 07/00 A3019 RMK A01 T00650004  RH  065%=      5-min Rain = 0
KSW1 150443Z 17014KT 07/00 A3019 RMK A01 T00650003  RH  065%=      5-min Rain = 0
KSW1 150444Z 16015G21KT 07/00 A3019 RMK A01 T00650004  RH  065%=      5-min Rain = 0
KSW1 150445Z 16014KT 07/00 A3019 RMK A01 T00650003  RH  065%=      5-min Rain = 0
KSW1 150446Z 16016KT 07/00 A3019 RMK A01 T00650003  RH  065%=      5-min Rain = 0
KSW1 150447Z 16014KT 07/00 A3019 RMK A01 T00650004  RH  065%=      5-min Rain = 0
KSW1 150448Z 17014KT 07/00 A3019 RMK A01 T00650004  RH  065%=      5-min Rain = 0
KSW1 150449Z 16015KT 07/00 A3019 RMK A01 T00650003  RH  065%=      5-min Rain = 0
KSW1 150450Z 17012KT 07/00 A3019 RMK A01 T00650004  RH  065%=      5-min Rain = 0
KSW1 150451Z 17012KT 06/00 A3019 RMK A01 T00640004  RH  065%=      5-min Rain = 0
KSW1 150452Z 16013KT 06/00 A3019 RMK A01 T00640004  RH  066%=      5-min Rain = 0
KSW1 150453Z 16014KT 06/00 A3019 RMK A01 T00640004  RH  066%=      5-min Rain = 0
KSW1 150454Z 16012KT 06/00 A3019 RMK A01 T00640004  RH  065%=      5-min Rain = 0
KSW1 150455Z 17013KT 06/00 A3019 RMK A01 T00640004  RH  066%=      5-min Rain = 0
KSW1 150456Z 17015KT 06/00 A3018 RMK A01 T00640004  RH  066%=      5-min Rain = 0
KSW1 150457Z 17013KT 06/00 A3018 RMK A01 T00640004  RH  065%=      5-min Rain = 0
KSW1 150458Z 16013KT 06/00 A3018 RMK A01 T00640004  RH  065%=      5-min Rain = 0
KSW1 150459Z 17011G18KT 06/00 A3018 RMK A01 T00640004  RH  066%=      5-min Rain = 0
KSW1 150500Z 17015KT 06/00 A3018 RMK A01 T00630004  RH  066%=      5-min Rain = 0
KSW1 150501Z 17014KT 06/00 A3018 RMK A01 T00630004  RH  066%=      5-min Rain = 0
KSW1 150502Z 17012KT 06/00 A3018 RMK A01 T00630004  RH  066%=      5-min Rain = 0
KSW1 150503Z 16011KT 06/00 A3018 RMK A01 T00630004  RH  066%=      5-min Rain = 0
KSW1 150504Z 17011KT 06/00 A3018 RMK A01 T00630004  RH  066%=      5-min Rain = 0
KSW1 150505Z 17013KT 06/00 A3018 RMK A01 T00620004  RH  066%=      5-min Rain = 0
KSW1 150506Z 17013KT 06/00 A3018 RMK A01 T00630004  RH  066%=      5-min Rain = 0
KSW1 150507Z 17012KT 06/00 A3018 RMK A01 T00630004  RH  066%=      5-min Rain = 0
KSW1 150508Z 17014KT 06/00 A3018 RMK A01 T00630004  RH  066%=      5-min Rain = 0
KSW1 150509Z 17013KT 06/00 A3018 RMK A01 T00640004  RH  066%=      5-min Rain = 0
KSW1 150510Z 17011G16KT 06/00 A3018 RMK A01 T00640004  RH  065%=      5-min Rain = 0
KSW1 150511Z 17012KT 06/01 A3018 RMK A01 T00640005  RH  066%=      5-min Rain = 0
KSW1 150512Z 17013KT 06/01 A3018 RMK A01 T00640005  RH  066%=      5-min Rain = 0
KSW1 150513Z 17015KT 06/01 A3018 RMK A01 T00640005  RH  066%=      5-min Rain = 0
KSW1 150514Z 17013G18KT 07/01 A3018 RMK A01 T00650005  RH  065%=      5-min Rain = 0
KSW1 150515Z 17014KT 07/01 A3018 RMK A01 T00660005  RH  065%=      5-min Rain = 0
KSW1 150516Z 17013KT 07/01 A3018 RMK A01 T00670006  RH  065%=      5-min Rain = 0
KSW1 150517Z 17013KT 07/01 A3018 RMK A01 T00670005  RH  065%=      5-min Rain = 0
KSW1 150518Z 17013KT 07/01 A3018 RMK A01 T00670006  RH  065%=      5-min Rain = 0
KSW1 150519Z 17014G19KT 07/01 A3018 RMK A01 T00660006  RH  065%=      5-min Rain = 0
KSW1 150520Z 17013KT 07/01 A3018 RMK A01 T00670006  RH  065%=      5-min Rain = 0
KSW1 150521Z 17010KT 07/01 A3018 RMK A01 T00670006  RH  065%=      5-min Rain = 0
KSW1 150522Z 18015KT 07/01 A3018 RMK A01 T00660006  RH  066%=      5-min Rain = 0
KSW1 150523Z 17015KT 07/01 A3018 RMK A01 T00660007  RH  066%=      5-min Rain = 0
KSW1 150524Z 17016KT 07/01 A3018 RMK A01 T00670007  RH  065%=      5-min Rain = 0
KSW1 150525Z 18014KT 07/01 A3018 RMK A01 T00670007  RH  065%=      5-min Rain = 0
KSW1 150526Z 17018KT 07/01 A3018 RMK A01 T00670007  RH  065%=      5-min Rain = 0
KSW1 150527Z 17016KT 07/01 A3018 RMK A01 T00680007  RH  065%=      5-min Rain = 0
KSW1 150528Z 17016KT 07/01 A3018 RMK A01 T00680007  RH  065%=      5-min Rain = 0
KSW1 150529Z 18015KT 07/01 A3018 RMK A01 T00680007  RH  065%=      5-min Rain = 0
KSW1 150530Z 17017KT 07/01 A3018 RMK A01 T00680008  RH  066%=      5-min Rain = 0
KSW1 150531Z 17016G21KT 07/01 A3018 RMK A01 T00680007  RH  065%=      5-min Rain = 0
KSW1 150532Z 17016KT 07/01 A3018 RMK A01 T00680007  RH  065%=      5-min Rain = 0
KSW1 150533Z 17015KT 07/01 A3018 RMK A01 T00680008  RH  065%=      5-min Rain = 0
KSW1 150534Z 17017KT 07/01 A3018 RMK A01 T00670008  RH  066%=      5-min Rain = 0
KSW1 150535Z 18017KT 07/01 A3018 RMK A01 T00670008  RH  066%=      5-min Rain = 0
KSW1 150536Z 17015G21KT 07/01 A3018 RMK A01 T00670008  RH  066%=      5-min Rain = 0
KSW1 150537Z 18016KT 07/01 A3018 RMK A01 T00670008  RH  066%=      5-min Rain = 0
KSW1 150538Z 17017KT 07/01 A3018 RMK A01 T00660008  RH  066%=      5-min Rain = 0
KSW1 150539Z 17017KT 07/01 A3018 RMK A01 T00660008  RH  066%=      5-min Rain = 0
KSW1 150540Z 17015KT 07/01 A3018 RMK A01 T00660008  RH  066%=      5-min Rain = 0
KSW1 150541Z 17017KT 07/01 A3017 RMK A01 T00660008  RH  067%=      5-min Rain = 0
KSW1 150542Z 18016KT 07/01 A3017 RMK A01 T00660008  RH  067%=      5-min Rain = 0
KSW1 150543Z 17016KT 07/01 A3017 RMK A01 T00650009  RH  067%=      5-min Rain = 0
KSW1 150544Z 17016KT 07/01 A3017 RMK A01 T00650009  RH  067%=      5-min Rain = 0
KSW1 150545Z 18016G22KT 07/01 A3017 RMK A01 T00650008  RH  067%=      5-min Rain = 0
KSW1 150546Z 18014KT 07/01 A3017 RMK A01 T00650008  RH  067%=      5-min Rain = 0
KSW1 150547Z 18016KT 07/01 A3017 RMK A01 T00650009  RH  067%=      5-min Rain = 0
KSW1 150548Z 18015KT 06/01 A3018 RMK A01 T00640009  RH  068%=      5-min Rain = 0
KSW1 150549Z 18014KT 06/01 A3018 RMK A01 T00640009  RH  068%=      5-min Rain = 0
KSW1 150550Z 17016KT 06/01 A3018 RMK A01 T00630008  RH  068%=      5-min Rain = 0
KSW1 150551Z 18015KT 06/01 A3018 RMK A01 T00640009  RH  068%=      5-min Rain = 0
KSW1 150552Z 18014KT 06/01 A3018 RMK A01 T00630009  RH  068%=      5-min Rain = 0
KSW1 150553Z 18014KT 06/01 A3018 RMK A01 T00630010  RH  069%=      5-min Rain = 0
KSW1 150554Z 18014KT 06/01 A3018 RMK A01 T00620010  RH  069%=      5-min Rain = 0
KSW1 150555Z 18016KT 06/01 A3018 RMK A01 T00620010  RH  069%=      5-min Rain = 0
KSW1 150556Z 18015KT 06/01 A3017 RMK A01 T00630009  RH  069%=      5-min Rain = 0
KSW1 150557Z 18014KT 06/01 A3017 RMK A01 T00630010  RH  069%=      5-min Rain = 0
KSW1 150558Z 18017G22KT 06/01 A3017 RMK A01 T00630010  RH  069%=      5-min Rain = 0
KSW1 150559Z 18015G20KT 06/01 A3017 RMK A01 T00630010  RH  069%=      5-min Rain = 0

Page generated in 0.0718 seconds.